Sigfox identifier Datetime Temperature Humidity SNR
003C4329 2019-04-12 12:30:19 21.1 17 15.6
003C4329 2019-04-12 12:00:11 21.1 17 15.5
003C4329 2019-04-12 11:30:07 21.2 18 15.4
003C4329 2019-04-12 10:59:58 21.1 18 15.4
003C4329 2019-04-12 10:29:46 21 18 15.6
003C4329 2019-04-12 09:59:41 21 18 15.8
003C4329 2019-04-12 09:29:32 20.9 18 15.3
003C4329 2019-04-12 08:59:24 20.9 18 15.3
003C4329 2019-04-12 08:29:18 20.9 18 15.4
003C4329 2019-04-12 07:59:10 20.9 18 15.7
003C4329 2019-04-12 07:29:03 20.9 18 16
003C4329 2019-04-12 06:58:56 20.9 18 16.4
003C4329 2019-04-12 06:28:50 20.9 18 16.5
003C4329 2019-04-12 05:58:42 21 18 16.5
003C4329 2019-04-12 05:28:37 21 18 16.6
003C4329 2019-04-12 04:58:30 21 18 16.7
003C4329 2019-04-12 04:28:21 21 18 16.9
003C4329 2019-04-12 03:58:14 21 18 17.2
003C4329 2019-04-12 03:28:06 21.1 18 17.5
003C4329 2019-04-12 02:57:58 21.1 18 17.5
003C4329 2019-04-12 02:27:51 21.1 18 17.5
003C4329 2019-04-12 01:57:43 21.1 18 17.7
003C4329 2019-04-12 01:27:36 21.2 18 17.7
003C4329 2019-04-12 00:57:29 21.2 18 17.8
003C4329 2019-04-12 00:27:21 21.3 18 17.9
003C4329 2019-04-11 23:57:13 21.4 18 17.9
003C4329 2019-04-11 23:27:08 21.4 18 18.3
003C4329 2019-04-11 22:56:59 21.5 18 18.4
003C4329 2019-04-11 22:26:50 21.5 18 18.4
003C4329 2019-04-11 21:56:44 21.5 18 18.3
003C4329 2019-04-11 21:26:36 21.5 18 18.5
003C4329 2019-04-11 20:56:30 21.5 18 18.7
003C4329 2019-04-11 20:26:19 21.4 18 19
003C4329 2019-04-11 19:56:11 21.4 17 19.4
003C4329 2019-04-11 19:26:02 21.3 17 19.8
003C4329 2019-04-11 18:55:53 21.3 17 19.9
003C4329 2019-04-11 18:25:45 21.3 17 19.7
003C4329 2019-04-11 17:55:37 21.2 17 20.1
003C4329 2019-04-11 17:24:56 21.3 17 20.4
003C4329 2019-04-11 16:54:48 21.3 17 20.4
003C4329 2019-04-11 16:24:39 21.3 18 20.5
003C4329 2019-04-11 15:54:32 21.2 18 20.8
003C4329 2019-04-11 15:24:24 21.1 19 20.8
003C4329 2019-04-11 14:54:16 21 18 21.1
003C4329 2019-04-11 14:24:09 21 18 21.5
003C4329 2019-04-11 13:54:02 21 18 21.6
003C4329 2019-04-11 13:23:56 20.9 18 21.6
003C4329 2019-04-11 12:53:47 20.9 17 21.9
003C4329 2019-04-11 12:23:39 20.9 18 22.1
003C4329 2019-04-11 11:53:31 20.9 18 22.1
003C4329 2019-04-11 11:23:25 20.9 18 22
003C4329 2019-04-11 10:53:16 20.9 19 22.1
003C4329 2019-04-11 10:23:08 20.8 18 22.1
003C4329 2019-04-11 09:53:02 20.8 18 22.3
003C4329 2019-04-11 09:22:54 20.8 18 22.2
003C4329 2019-04-11 08:52:47 20.7 18 22.2
003C4329 2019-04-11 08:22:40 20.7 18 22.2
003C4329 2019-04-11 07:52:33 20.8 18 23
003C4329 2019-04-11 07:22:25 20.8 19 22.9
003C4329 2019-04-11 06:52:17 20.8 19 23
003C4329 2019-04-11 06:22:10 20.8 19 23.2
003C4329 2019-04-11 05:52:03 20.8 19 23.1
003C4329 2019-04-11 05:21:56 20.8 19 23.1
003C4329 2019-04-11 04:51:48 20.8 19 23.1
003C4329 2019-04-11 04:21:41 20.8 19 23.1
003C4329 2019-04-11 03:51:33 20.8 19 23.1
003C4329 2019-04-11 03:21:26 20.9 19 22.9
003C4329 2019-04-11 02:51:18 20.9 19 22.9
003C4329 2019-04-11 02:21:11 20.9 19 22.7
003C4329 2019-04-11 01:51:04 20.9 19 23.3
003C4329 2019-04-11 01:20:56 21 19 23.3
003C4329 2019-04-11 00:50:50 21 19 23.3
003C4329 2019-04-11 00:20:42 21.1 19 23.1
003C4329 2019-04-10 23:50:34 21 19 22.9
003C4329 2019-04-10 23:20:28 21 19 22.9
003C4329 2019-04-10 22:50:21 21 19 23
003C4329 2019-04-10 22:20:15 21 19 23
003C4329 2019-04-10 21:50:08 21 19 23.1
003C4329 2019-04-10 21:20:02 21 19 23
003C4329 2019-04-10 20:49:56 21 19 23.2
003C4329 2019-04-10 20:19:49 20.9 19 23.1
003C4329 2019-04-10 19:49:42 20.9 19 23.1
003C4329 2019-04-10 19:19:36 20.8 19 22.4
003C4329 2019-04-10 18:49:33 20.8 19 22.4
003C4329 2019-04-10 18:19:24 20.8 19 22.2
003C4329 2019-04-10 17:49:16 20.8 19 22.3
003C4329 2019-04-10 17:19:10 20.8 19 22.4
003C4329 2019-04-10 16:49:02 20.8 19 22.6
003C4329 2019-04-10 16:18:24 20.8 19 23
003C4329 2019-04-10 15:48:18 20.9 20 23.1
003C4329 2019-04-10 15:18:10 20.9 20 23.2
003C4329 2019-04-10 14:48:04 20.9 20 23.3
003C4329 2019-04-10 14:17:58 20.9 20 23.5
003C4329 2019-04-10 13:47:52 20.9 20 22.8
003C4329 2019-04-10 13:17:45 20.9 20 22.9
003C4329 2019-04-10 12:47:39 20.9 21 23
003C4329 2019-04-10 12:17:31 20.8 21 23.2
003C4329 2019-04-10 11:47:24 20.8 21 23.3
003C4329 2019-04-10 11:17:16 20.8 21 24.1
003C4329 2019-04-10 10:47:08 20.7 21 24.3
003C4329 2019-04-10 10:17:01 20.7 21 24.3
003C4329 2019-04-10 09:46:54 20.7 22 24.3
003C4329 2019-04-10 09:16:46 20.7 22 24.4
003C4329 2019-04-10 08:46:40 20.6 23 24.4
003C4329 2019-04-10 08:16:32 20.6 23 24.6
003C4329 2019-04-10 07:46:26 20.6 23 24.6
003C4329 2019-04-10 07:16:19 20.7 24 24.6
003C4329 2019-04-10 06:46:12 20.6 24 24.7
003C4329 2019-04-10 06:16:05 20.6 24 24.8
003C4329 2019-04-10 05:45:59 20.6 24 24.8
003C4329 2019-04-10 05:15:52 20.6 24 24.6
003C4329 2019-04-10 04:45:47 20.6 24 24.5
003C4329 2019-04-10 04:15:41 20.6 24 24.5
003C4329 2019-04-10 03:45:34 20.6 24 24.4
003C4329 2019-04-10 03:15:28 20.7 25 24.3
003C4329 2019-04-10 02:45:20 20.7 25 24.2
003C4329 2019-04-10 02:15:13 20.7 26 24.1
003C4329 2019-04-10 01:45:08 20.7 26 24.3
003C4329 2019-04-10 01:15:01 20.7 26 24.3
003C4329 2019-04-10 00:44:54 20.7 26 24.1
003C4329 2019-04-10 00:14:48 20.7 26 24.1
003C4329 2019-04-09 23:44:42 20.8 26 24
003C4329 2019-04-09 23:14:35 20.8 27 23.8
003C4329 2019-04-09 22:44:28 20.8 27 23.1
003C4329 2019-04-09 22:14:20 20.8 27 22.6
003C4329 2019-04-09 21:44:14 20.8 27 22.5
003C4329 2019-04-09 21:14:08 20.8 27 22.5
003C4329 2019-04-09 20:44:00 20.7 27 22.2
003C4329 2019-04-09 20:13:53 20.7 27 22.1
003C4329 2019-04-09 19:43:47 20.7 27 21.6
003C4329 2019-04-09 19:13:40 20.8 27 21.4
003C4329 2019-04-09 18:43:33 20.8 27 21.4
003C4329 2019-04-09 18:13:26 20.8 27 20.9
003C4329 2019-04-09 17:43:21 20.9 27 20.8
003C4329 2019-04-09 17:13:15 20.9 27 20.7
003C4329 2019-04-09 16:43:08 20.9 27 21.9
003C4329 2019-04-09 16:13:01 20.9 27 21.9
003C4329 2019-04-09 15:42:54 20.9 27 21.9
003C4329 2019-04-09 15:12:15 20.9 27 22.3
003C4329 2019-04-09 14:42:11 20.9 26 22.4
003C4329 2019-04-09 14:12:03 20.9 26 22.6
003C4329 2019-04-09 13:41:57 20.9 26 22.4
003C4329 2019-04-09 13:11:51 20.9 26 22.4
003C4329 2019-04-09 12:41:46 21 26 22.5
003C4329 2019-04-09 12:11:41 21 26 22.6
003C4329 2019-04-09 11:41:35 20.9 26 22.7
003C4329 2019-04-09 11:11:29 20.8 26 22.9
003C4329 2019-04-09 10:41:24 20.8 26 23
003C4329 2019-04-09 10:11:19 20.8 26 23.1
003C4329 2019-04-09 09:41:14 20.8 26 23.3
003C4329 2019-04-09 09:11:08 20.8 26 23.3
003C4329 2019-04-09 08:41:02 20.8 26 23.4
003C4329 2019-04-09 08:10:55 20.8 25 23.5
003C4329 2019-04-09 07:40:52 20.8 25 23.8
003C4329 2019-04-09 07:10:45 20.8 25 23.7
003C4329 2019-04-09 06:40:38 20.8 25 23.8
003C4329 2019-04-09 06:10:32 20.8 25 23.7
003C4329 2019-04-09 05:40:26 20.8 25 23.7
003C4329 2019-04-09 05:10:19 20.8 25 23.1
003C4329 2019-04-09 04:40:12 20.9 25 23
003C4329 2019-04-09 04:10:06 20.9 25 23
003C4329 2019-04-09 03:40:00 20.8 26 22.7
003C4329 2019-04-09 03:09:54 20.8 25 22.8
003C4329 2019-04-09 02:09:41 20.9 26 23.2
003C4329 2019-04-09 01:39:35 20.9 26 23.2
003C4329 2019-04-09 01:09:29 20.9 26 23.8
003C4329 2019-04-09 00:39:23 20.9 26 23.8
003C4329 2019-04-09 00:09:15 20.9 26 23.9
003C4329 2019-04-08 23:39:10 21 26 23.8
003C4329 2019-04-08 23:09:04 20.9 26 23.8
003C4329 2019-04-08 22:38:57 21 26 23.8
003C4329 2019-04-08 22:08:50 21 26 23.8
003C4329 2019-04-08 21:38:43 21 26 23.7
003C4329 2019-04-08 21:08:37 21 26 23.7
003C4329 2019-04-08 20:38:31 21 26 23.7
003C4329 2019-04-08 20:08:24 21 26 23.8
003C4329 2019-04-08 19:38:17 21 26 23.8
003C4329 2019-04-08 19:08:12 20.9 26 23.8
003C4329 2019-04-08 18:38:03 20.9 26 23.8
003C4329 2019-04-08 18:07:57 21 26 23.7
003C4329 2019-04-08 17:37:50 21 26 23.8
003C4329 2019-04-08 17:07:43 21 26 23.9
003C4329 2019-04-08 16:37:36 21.1 26 23.7
003C4329 2019-04-08 16:07:30 21 26 23.6
003C4329 2019-04-08 15:37:25 21.1 26 23.6
003C4329 2019-04-08 15:07:18 21 26 23.7
003C4329 2019-04-08 14:37:11 21.1 26 23.8
003C4329 2019-04-08 14:06:33 21.1 26 23.2
003C4329 2019-04-08 13:36:24 21 26 23.2
003C4329 2019-04-08 13:06:16 20.9 26 22.5
003C4329 2019-04-08 12:36:10 20.8 26 22.6
003C4329 2019-04-08 12:06:04 20.8 25 22.5
003C4329 2019-04-08 11:35:55 20.7 25 22.5
003C4329 2019-04-08 11:05:49 20.7 25 22.5
003C4329 2019-04-08 10:35:44 20.7 25 22.5
003C4329 2019-04-08 10:05:39 20.6 24 22.7
003C4329 2019-04-08 09:35:32 20.5 24 22.6
003C4329 2019-04-08 09:05:25 20.5 24 22.5
003C4329 2019-04-08 08:35:19 20.4 24 22.4
003C4329 2019-04-08 08:05:14 20.4 23 22.2
003C4329 2019-04-08 07:35:09 20.4 23 22
003C4329 2019-04-08 07:05:01 20.4 23 21.9
003C4329 2019-04-08 06:34:55 20.5 23 22.9
003C4329 2019-04-08 06:04:48 20.5 23 22.6
003C4329 2019-04-08 05:34:41 20.5 23 22.6
003C4329 2019-04-08 05:04:34 20.5 23 22.6
003C4329 2019-04-08 04:34:28 20.5 23 22.7
003C4329 2019-04-08 04:04:21 20.6 23 23.4
003C4329 2019-04-08 03:34:16 20.6 23 23.3
003C4329 2019-04-08 03:04:11 20.6 23 23.2
003C4329 2019-04-08 02:34:05 20.6 23 23.1
003C4329 2019-04-08 02:04:00 20.6 23 23.1
003C4329 2019-04-08 01:33:52 20.7 23 23
003C4329 2019-04-08 01:03:46 20.7 23 22.8
003C4329 2019-04-08 00:33:38 20.7 23 22.7
003C4329 2019-04-08 00:03:34 20.7 23 22.8
003C4329 2019-04-07 23:33:27 20.8 23 22.8
003C4329 2019-04-07 23:03:20 20.8 22 22.6
003C4329 2019-04-07 22:33:13 20.9 22 22.5
003C4329 2019-04-07 22:03:06 20.9 22 22.5
003C4329 2019-04-07 21:33:00 20.9 22 23.1
003C4329 2019-04-07 21:02:54 21 22 23.2
003C4329 2019-04-07 20:32:47 21 22 23.2
003C4329 2019-04-07 20:02:41 21 22 23.1
003C4329 2019-04-07 19:32:35 21 22 23.2
003C4329 2019-04-07 19:02:29 21.1 22 23.3
003C4329 2019-04-07 18:32:23 21 22 23.3
003C4329 2019-04-07 18:02:16 21 22 22.7
003C4329 2019-04-07 17:32:10 21 22 22.8
003C4329 2019-04-07 17:02:05 21 22 22.7
003C4329 2019-04-07 16:31:57 20.9 22 22.8
003C4329 2019-04-07 16:01:51 20.8 22 22.7
003C4329 2019-04-07 15:31:45 20.7 22 21.8
003C4329 2019-04-07 15:01:40 20.6 22 21.7
003C4329 2019-04-07 14:31:35 20.6 22 21.6
003C4329 2019-04-07 14:01:26 20.6 22 21.7
003C4329 2019-04-07 13:31:20 20.6 22 21.8
003C4329 2019-04-07 13:00:41 20.5 21 21.9
003C4329 2019-04-07 12:30:34 20.5 21 21.9
003C4329 2019-04-07 12:00:27 20.5 21 21.7
003C4329 2019-04-07 11:30:21 20.5 21 21.8
003C4329 2019-04-07 11:00:15 20.5 21 21.8
003C4329 2019-04-07 10:30:10 20.5 21 21.8
003C4329 2019-04-07 10:00:05 20.5 21 21.7
003C4329 2019-04-07 09:29:59 20.5 21 20.6
003C4329 2019-04-07 08:59:54 20.5 21 20.8
003C4329 2019-04-07 08:29:48 20.6 21 20.9
003C4329 2019-04-07 07:59:44 20.6 21 20.5
003C4329 2019-04-07 07:29:39 20.6 21 20.6
003C4329 2019-04-07 06:59:34 20.7 21 20.5
003C4329 2019-04-07 06:29:30 20.7 21 20.8
003C4329 2019-04-07 05:59:25 20.7 21 20.6
003C4329 2019-04-07 05:29:18 20.7 21 20.6
003C4329 2019-04-07 04:59:13 20.8 21 20.5
003C4329 2019-04-07 04:29:07 20.8 21 20.6
003C4329 2019-04-07 03:59:00 20.8 21 21
003C4329 2019-04-07 03:28:53 20.9 21 20.9
003C4329 2019-04-07 02:58:48 20.9 21 21
003C4329 2019-04-07 02:28:42 20.9 21 21
003C4329 2019-04-07 01:58:34 21 21 21
003C4329 2019-04-07 01:28:27 21.1 21 21
003C4329 2019-04-07 00:58:21 21.1 21 21.2
003C4329 2019-04-07 00:28:14 21.1 21 21.2
003C4329 2019-04-06 23:58:08 21.2 21 21.1
003C4329 2019-04-06 23:28:01 21.2 21 21.2
003C4329 2019-04-06 22:57:55 21.3 21 21.2
003C4329 2019-04-06 22:27:49 21.3 21 21.3
003C4329 2019-04-06 21:57:42 21.3 21 21.2
003C4329 2019-04-06 21:27:34 21.4 21 21.2
003C4329 2019-04-06 20:57:27 21.4 21 21.1
003C4329 2019-04-06 20:27:21 21.4 21 21.1
003C4329 2019-04-06 19:57:15 21.4 21 21
003C4329 2019-04-06 19:27:08 21.4 21 21.1
003C4329 2019-04-06 18:57:02 21.3 21 21.3
003C4329 2019-04-06 18:26:57 21.3 21 21.5
003C4329 2019-04-06 17:56:51 21.3 21 21.4
003C4329 2019-04-06 17:26:45 21.2 21 21.4
003C4329 2019-04-06 16:56:40 21.1 21 21.4
003C4329 2019-04-06 16:26:33 21 21 21.3
003C4329 2019-04-06 15:56:27 20.9 21 21.3
003C4329 2019-04-06 15:26:23 20.8 21 21
003C4329 2019-04-06 14:56:18 20.7 21 21.2
003C4329 2019-04-06 14:26:13 20.7 21 21.1
003C4329 2019-04-06 13:56:09 20.7 21 21.3
003C4329 2019-04-06 13:26:03 20.7 21 21.2
003C4329 2019-04-06 12:55:57 20.7 21 21.2
003C4329 2019-04-06 12:25:52 20.7 21 22.1
003C4329 2019-04-06 11:55:13 20.6 21 22.1
003C4329 2019-04-06 11:25:08 20.7 21 22.1
003C4329 2019-04-06 10:55:03 20.7 21 22.3
003C4329 2019-04-06 10:24:58 20.6 20 22.2
003C4329 2019-04-06 09:54:53 20.6 20 22.5
003C4329 2019-04-06 09:24:48 20.6 20 22.5
003C4329 2019-04-06 08:54:42 20.7 20 22.4
003C4329 2019-04-06 08:24:38 20.7 20 22.3
003C4329 2019-04-06 07:54:30 20.7 20 22.3
003C4329 2019-04-06 07:24:25 20.8 20 22.4
003C4329 2019-04-06 06:54:20 20.8 20 22.3
003C4329 2019-04-06 06:24:13 20.8 20 22.3
003C4329 2019-04-06 05:54:08 20.9 20 22.2
003C4329 2019-04-06 05:24:02 20.9 20 22.2
003C4329 2019-04-06 04:53:55 20.9 20 22.3
003C4329 2019-04-06 04:23:52 21 20 22.3
003C4329 2019-04-06 03:53:43 21 20 22.3
003C4329 2019-04-06 03:23:37 21.1 20 22.3
003C4329 2019-04-06 02:53:31 21.1 20 22.4
003C4329 2019-04-06 02:23:25 21.2 20 22.5
003C4329 2019-04-06 01:53:20 21.3 20 22.3
003C4329 2019-04-06 01:23:15 21.3 20 22.5
003C4329 2019-04-06 00:53:08 21.4 20 22.4
003C4329 2019-04-06 00:23:01 21.5 19 21.4
003C4329 2019-04-05 23:52:55 21.6 19 21.5
003C4329 2019-04-05 23:22:48 21.7 19 21.3
003C4329 2019-04-05 22:52:41 21.7 19 21.2
003C4329 2019-04-05 22:22:34 21.8 19 22
003C4329 2019-04-05 21:52:27 21.9 19 22.2
003C4329 2019-04-05 21:22:20 22 19 22.2
003C4329 2019-04-05 20:52:13 22 20 22.3
003C4329 2019-04-05 20:22:06 22 19 22.3
003C4329 2019-04-05 19:52:00 22 19 22.2
003C4329 2019-04-05 19:21:52 21.9 20 22.2
003C4329 2019-04-05 18:51:46 21.8 20 22.1
003C4329 2019-04-05 18:21:39 21.8 19 22.1
003C4329 2019-04-05 17:51:33 21.8 20 22.1
003C4329 2019-04-05 17:21:25 21.7 20 21.9
003C4329 2019-04-05 16:51:18 21.8 20 21.9
003C4329 2019-04-05 16:21:11 21.7 21 21.8
003C4329 2019-04-05 15:51:02 21.6 21 21.9
003C4329 2019-04-05 15:20:55 21.5 21 21.9
003C4329 2019-04-05 14:50:47 21.5 22 21.8
003C4329 2019-04-05 14:20:40 21.4 21 21.8
003C4329 2019-04-05 13:50:32 21.4 22 21.8
003C4329 2019-04-05 13:20:25 21.3 21 22.1
003C4329 2019-04-05 12:50:18 21.4 22 21.9
003C4329 2019-04-05 12:20:14 21.3 22 21.9
003C4329 2019-04-05 11:50:05 21.3 22 22
003C4329 2019-04-05 11:19:58 21.3 22 21.9
003C4329 2019-04-05 10:49:18 21.2 21 22.2
003C4329 2019-04-05 10:19:10 21.2 21 21.1
003C4329 2019-04-05 09:49:04 21.1 20 21
003C4329 2019-04-05 09:18:57 21.1 20 20.8
003C4329 2019-04-05 08:48:50 21.1 20 22
003C4329 2019-04-05 08:18:44 21.1 19 22.1
003C4329 2019-04-05 07:48:39 21.1 19 22.1
003C4329 2019-04-05 07:18:33 21.2 19 22
003C4329 2019-04-05 06:48:27 21.2 19 22
003C4329 2019-04-05 06:18:24 21.2 19 22
003C4329 2019-04-05 05:48:15 21.2 19 21.9
003C4329 2019-04-05 05:18:09 21.2 19 22
003C4329 2019-04-05 04:48:03 21.2 19 22
003C4329 2019-04-05 04:17:58 21.3 19 22
003C4329 2019-04-05 03:47:48 21.3 19 22.9
003C4329 2019-04-05 03:17:42 21.3 19 22.9
003C4329 2019-04-05 02:47:36 21.4 19 23.6
003C4329 2019-04-05 02:17:30 21.4 19 23.5
003C4329 2019-04-05 01:47:23 21.5 19 23.5
003C4329 2019-04-05 01:17:14 21.5 19 23.5
003C4329 2019-04-05 00:47:08 21.5 19 23.5
003C4329 2019-04-05 00:17:00 21.5 19 23.5
003C4329 2019-04-04 23:46:53 21.6 19 24.1
003C4329 2019-04-04 23:16:48 21.6 19 24.1
003C4329 2019-04-04 22:46:41 21.6 19 24.6
003C4329 2019-04-04 22:16:34 21.6 19 24.6
003C4329 2019-04-04 21:46:28 21.6 18 24.5
003C4329 2019-04-04 21:16:21 21.6 18 24.5
003C4329 2019-04-04 20:46:14 21.6 18 24.4
003C4329 2019-04-04 20:16:07 21.6 18 23.8
003C4329 2019-04-04 19:45:59 21.6 18 23.8
003C4329 2019-04-04 19:15:53 21.6 18 23.9
003C4329 2019-04-04 18:45:46 21.6 18 23.9
003C4329 2019-04-04 18:15:40 21.6 18 24.5
003C4329 2019-04-04 17:45:34 21.6 19 24.4
003C4329 2019-04-04 17:15:28 21.6 19 24.5
003C4329 2019-04-04 16:45:21 21.6 19 24.5
003C4329 2019-04-04 16:15:15 21.5 20 24.4
003C4329 2019-04-04 15:45:08 21.5 20 24.4
003C4329 2019-04-04 15:15:02 21.4 20 23.8
003C4329 2019-04-04 14:44:56 21.3 20 23.8
003C4329 2019-04-04 14:14:49 21.3 20 23
003C4329 2019-04-04 13:44:41 21.2 20 23.2
003C4329 2019-04-04 13:14:34 21.2 20 23
003C4329 2019-04-04 12:44:28 21.2 20 22.9
003C4329 2019-04-04 12:14:22 21.1 20 22.9
003C4329 2019-04-04 11:44:17 21.1 20 23
003C4329 2019-04-04 11:14:13 21.1 20 22.1
003C4329 2019-04-04 10:44:07 21.1 20 22.1
003C4329 2019-04-04 10:14:01 21.3 20 20.9
003C4329 2019-04-04 10:12:52 21 20 21
003C4329 2019-04-04 09:42:45 21.1 20 21.1
003C4329 2019-04-04 09:12:39 21 20 21.1
003C4329 2019-04-04 08:42:33 21.1 20 21
003C4329 2019-04-04 08:12:26 21.1 20 21
003C4329 2019-04-04 07:42:22 21.1 20 20.9
003C4329 2019-04-04 07:12:12 21.1 20 20.8
003C4329 2019-04-04 06:42:06 21.1 20 20.8
003C4329 2019-04-04 06:11:59 21.2 20 19.2
003C4329 2019-04-04 05:41:52 21.2 20 19.3
003C4329 2019-04-04 05:11:44 21.2 20 19
003C4329 2019-04-04 04:41:38 21.2 20 19.2
003C4329 2019-04-04 04:11:30 21.3 20 19.5
003C4329 2019-04-04 03:41:23 21.3 20 19.4
003C4329 2019-04-04 03:11:16 21.4 20 19.4
003C4329 2019-04-04 02:41:10 21.4 20 19.7
003C4329 2019-04-04 02:11:05 21.5 20 19.6
003C4329 2019-04-04 01:40:56 21.5 20 19.5
003C4329 2019-04-04 01:10:49 21.5 20 19.6
003C4329 2019-04-04 00:40:41 21.5 20 19.9
003C4329 2019-04-04 00:10:34 21.6 20 19.7
003C4329 2019-04-03 23:40:25 21.6 20 21
003C4329 2019-04-03 23:10:17 21.7 19 21.1
003C4329 2019-04-03 22:40:09 21.7 19 21.2
003C4329 2019-04-03 22:10:03 21.7 19 21.3
003C4329 2019-04-03 21:39:54 21.8 19 21.2
003C4329 2019-04-03 21:09:49 21.8 19 21.1
003C4329 2019-04-03 20:39:41 21.8 19 21.1
003C4329 2019-04-03 20:09:35 21.8 19 21.3
003C4329 2019-04-03 19:39:29 21.8 19 21.3
003C4329 2019-04-03 19:09:22 21.8 19 21.3
003C4329 2019-04-03 18:39:16 21.9 19 21.4
003C4329 2019-04-03 18:09:09 21.9 20 21.7
003C4329 2019-04-03 17:39:02 21.9 20 21.9
003C4329 2019-04-03 17:08:54 21.9 21 22.1
003C4329 2019-04-03 16:38:47 21.8 21 22.2
003C4329 2019-04-03 16:08:39 21.7 21 22.1
003C4329 2019-04-03 15:38:32 21.6 21 22.1
003C4329 2019-04-03 15:08:25 21.5 21 22.2
003C4329 2019-04-03 14:38:17 21.4 21 22.2
003C4329 2019-04-03 14:08:11 21.3 21 22
003C4329 2019-04-03 13:38:04 21.3 21 22.1
003C4329 2019-04-03 13:07:57 21.2 21 22.2
003C4329 2019-04-03 12:37:51 21.2 21 22.2
003C4329 2019-04-03 12:07:46 21.2 21 22.1
003C4329 2019-04-03 11:37:37 21.2 21 22.2
003C4329 2019-04-03 11:07:30 21.1 21 21.1
003C4329 2019-04-03 10:37:25 21.1 21 21.1
003C4329 2019-04-03 10:07:18 21 21 21
003C4329 2019-04-03 09:37:12 21 21 20.8
003C4329 2019-04-03 09:06:33 20.9 20 21.2
003C4329 2019-04-03 08:36:27 20.9 20 21.4
003C4329 2019-04-03 08:06:20 20.9 20 21.4
003C4329 2019-04-03 07:36:14 20.9 20 21.5
003C4329 2019-04-03 07:06:08 20.9 20 21.6
003C4329 2019-04-03 06:36:01 20.9 20 21.5
003C4329 2019-04-03 06:05:54 21 20 21.3
003C4329 2019-04-03 05:35:47 21 20 21.3
003C4329 2019-04-03 05:05:40 21 20 21
003C4329 2019-04-03 04:35:33 21 20 21.1
003C4329 2019-04-03 04:05:26 21 19 21.1
003C4329 2019-04-03 03:35:19 21 19 20.9
003C4329 2019-04-03 03:05:13 21.1 19 20.9
003C4329 2019-04-03 02:35:05 21.1 19 20.7
003C4329 2019-04-03 02:04:59 21.1 19 20.8
003C4329 2019-04-03 01:34:52 21.2 19 20.8
003C4329 2019-04-03 01:04:46 21.2 19 20.7
003C4329 2019-04-03 00:34:39 21.3 19 20.6
003C4329 2019-04-03 00:04:31 21.3 19 20.4
003C4329 2019-04-02 23:34:23 21.3 19 21.7
003C4329 2019-04-02 23:04:16 21.4 19 22.7
003C4329 2019-04-02 22:34:07 21.4 19 22.7
003C4329 2019-04-02 22:03:59 21.4 19 22.7
003C4329 2019-04-02 21:33:52 21.4 19 22.8
003C4329 2019-04-02 21:03:45 21.5 19 22.7
003C4329 2019-04-02 20:33:37 21.5 19 22.6
003C4329 2019-04-02 20:03:30 21.5 18 22.5
003C4329 2019-04-02 19:33:22 21.5 18 22.3
003C4329 2019-04-02 19:03:15 21.5 18 22.3
003C4329 2019-04-02 18:33:08 21.5 18 22.2
003C4329 2019-04-02 18:03:01 21.6 19 22.3
003C4329 2019-04-02 17:32:54 21.6 19 22.3
003C4329 2019-04-02 17:02:46 21.6 20 22.2
003C4329 2019-04-02 16:32:40 21.6 20 22.3
003C4329 2019-04-02 16:02:33 21.5 21 22.4
003C4329 2019-04-02 15:32:25 21.4 22 22.5
003C4329 2019-04-02 15:02:18 21.2 22 22.4
003C4329 2019-04-02 14:32:12 21.2 23 22.5
003C4329 2019-04-02 14:02:04 21 23 22.5
003C4329 2019-04-02 13:31:57 20.9 22 22.6
003C4329 2019-04-02 13:01:50 21 22 22.7
003C4329 2019-04-02 12:31:43 21 22 22.8
003C4329 2019-04-02 12:01:37 20.9 22 22.9
003C4329 2019-04-02 11:31:31 20.9 22 23
003C4329 2019-04-02 11:01:25 20.9 22 22.1
003C4329 2019-04-02 10:31:19 20.9 21 20.9
003C4329 2019-04-02 10:01:12 20.8 21 20.8
003C4329 2019-04-02 09:31:05 20.8 21 20.9
003C4329 2019-04-02 09:00:58 20.8 20 21.2
003C4329 2019-04-02 08:30:50 20.8 20 21.3
003C4329 2019-04-02 08:00:10 20.8 20 21.2
003C4329 2019-04-02 07:30:03 20.8 20 21.5
003C4329 2019-04-02 06:59:57 20.8 20 21.4
003C4329 2019-04-02 06:29:51 20.8 19 21.5
003C4329 2019-04-02 05:59:46 20.8 19 21.6
003C4329 2019-04-02 05:29:39 20.8 19 21.6
003C4329 2019-04-02 04:59:33 20.9 19 21.5
003C4329 2019-04-02 04:29:27 20.9 19 22.4
003C4329 2019-04-02 03:59:21 20.9 19 22.2
003C4329 2019-04-02 03:29:16 20.9 19 22.1
003C4329 2019-04-02 02:59:09 21 19 22.2
003C4329 2019-04-02 02:29:04 21 18 22.3
003C4329 2019-04-02 01:58:58 21 18 22.3
003C4329 2019-04-02 01:28:52 21 18 22.2
003C4329 2019-04-02 00:58:46 21.1 18 22.1
003C4329 2019-04-02 00:28:40 21.1 18 21.8
003C4329 2019-04-01 23:58:32 21.2 18 21.7
003C4329 2019-04-01 23:28:25 21.2 18 22.6
003C4329 2019-04-01 22:58:18 21.2 18 22.5
003C4329 2019-04-01 22:28:12 21.2 18 22.6
003C4329 2019-04-01 21:58:05 21.3 18 22.6
003C4329 2019-04-01 21:27:58 21.3 17 22.4
003C4329 2019-04-01 20:57:53 21.3 17 22.2
003C4329 2019-04-01 20:27:46 21.3 17 22
003C4329 2019-04-01 19:57:39 21.3 17 22
003C4329 2019-04-01 19:27:33 21.2 17 22.1
003C4329 2019-04-01 18:57:26 21.2 17 21.9
003C4329 2019-04-01 18:27:20 21.2 17 22
003C4329 2019-04-01 17:57:14 21.3 17 22
003C4329 2019-04-01 17:27:08 21.3 18 22.1
003C4329 2019-04-01 16:57:02 21.2 18 22.2
003C4329 2019-04-01 16:26:55 21.1 18 22.3
003C4329 2019-04-01 15:56:47 21 19 21.3
003C4329 2019-04-01 15:26:40 20.9 19 21.2
003C4329 2019-04-01 14:56:34 20.8 20 21.2
003C4329 2019-04-01 14:26:28 20.7 20 21
003C4329 2019-04-01 13:56:20 20.7 21 21.1
003C4329 2019-04-01 13:26:12 20.7 21 21.1
003C4329 2019-04-01 12:56:04 20.7 21 21.2
003C4329 2019-04-01 12:25:59 20.7 22 21.5
003C4329 2019-04-01 11:55:52 20.7 22 21.6
003C4329 2019-04-01 11:25:45 20.7 22 20.5
003C4329 2019-04-01 10:55:38 20.7 22 20.8
003C4329 2019-04-01 10:25:31 20.6 22 20.8
003C4329 2019-04-01 09:55:23 20.6 23 20.8
003C4329 2019-04-01 09:25:17 20.6 23 21
003C4329 2019-04-01 08:55:10 20.6 23 21
003C4329 2019-04-01 08:25:03 20.6 23 21.3
003C4329 2019-04-01 07:54:56 20.6 23 21.3
003C4329 2019-04-01 07:24:49 20.6 23 21.2
003C4329 2019-04-01 06:54:10 20.6 23 21.4
003C4329 2019-04-01 06:24:04 20.6 23 21.5
003C4329 2019-04-01 05:53:56 20.6 23 21.6
003C4329 2019-04-01 05:23:49 20.6 24 21.3
003C4329 2019-04-01 04:53:41 20.6 24 21.3
003C4329 2019-04-01 04:23:34 20.6 24 21.4
003C4329 2019-04-01 03:53:25 20.6 24 21.4
003C4329 2019-04-01 03:23:19 20.6 24 21.6
003C4329 2019-04-01 02:53:13 20.6 24 21.6
003C4329 2019-04-01 02:23:07 20.7 24 21.5
003C4329 2019-04-01 01:52:59 20.7 24 21.5
003C4329 2019-04-01 01:22:52 20.7 25 21.4
003C4329 2019-04-01 00:52:46 20.7 25 21.4
003C4329 2019-04-01 00:22:39 20.7 25 21.3
003C4329 2019-03-31 23:52:31 20.8 25 21.2
003C4329 2019-03-31 23:22:25 20.8 25 21.1
003C4329 2019-03-31 22:52:19 20.8 26 20.9
003C4329 2019-03-31 22:22:13 20.8 26 20.9
003C4329 2019-03-31 21:52:07 20.9 26 21.1
003C4329 2019-03-31 21:22:00 20.9 26 21.1
003C4329 2019-03-31 20:51:53 21 27 21
003C4329 2019-03-31 20:21:45 21 27 22
003C4329 2019-03-31 19:51:37 20.9 27 22.1
003C4329 2019-03-31 19:21:30 20.9 27 22.2
003C4329 2019-03-31 18:51:22 20.9 28 22.2
003C4329 2019-03-31 18:21:13 20.8 28 22.1
003C4329 2019-03-31 17:51:06 20.8 28 22
003C4329 2019-03-31 17:20:59 20.8 28 21.9
003C4329 2019-03-31 16:50:52 20.7 28 22
003C4329 2019-03-31 16:20:44 20.7 28 22
003C4329 2019-03-31 15:50:37 20.7 28 22
003C4329 2019-03-31 15:20:30 20.7 27 22.2
003C4329 2019-03-31 14:50:24 20.7 27 22.2
003C4329 2019-03-31 14:20:18 20.7 27 22.2
003C4329 2019-03-31 13:50:10 20.7 27 22.2
003C4329 2019-03-31 13:20:03 20.7 27 22.1
003C4329 2019-03-31 12:49:57 20.7 27 22.1
003C4329 2019-03-31 12:19:51 20.7 27 22.1
003C4329 2019-03-31 11:49:43 20.7 28 22
003C4329 2019-03-31 11:19:37 20.7 27 22.1
003C4329 2019-03-31 10:49:30 20.7 27 22
003C4329 2019-03-31 10:19:22 20.7 28 22.1
003C4329 2019-03-31 09:49:15 20.7 28 22.3
003C4329 2019-03-31 09:19:08 20.7 28 22.3
003C4329 2019-03-31 08:49:01 20.7 28 22.3
003C4329 2019-03-31 08:18:55 20.7 28 22.3
003C4329 2019-03-31 07:48:48 20.7 28 21.2
003C4329 2019-03-31 07:18:41 20.7 28 21.1
003C4329 2019-03-31 06:48:35 20.7 28 21.1
003C4329 2019-03-31 06:18:27 20.7 28 21
003C4329 2019-03-31 05:47:47 20.7 28 20.9
003C4329 2019-03-31 05:17:41 20.7 28 20.8
003C4329 2019-03-31 04:47:34 20.7 28 20.7
003C4329 2019-03-31 04:17:27 20.7 28 20.7
003C4329 2019-03-31 02:47:20 20.7 28 20.6
003C4329 2019-03-31 02:17:13 20.7 27 20.6
003C4329 2019-03-31 01:47:06 20.8 27 20.6
003C4329 2019-03-31 01:16:59 20.8 27 20.7
003C4329 2019-03-31 00:46:51 20.8 27 20.7
003C4329 2019-03-31 00:16:44 20.8 27 22
003C4329 2019-03-30 23:46:37 20.8 27 22.1
003C4329 2019-03-30 23:16:29 20.9 27 22.1
003C4329 2019-03-30 22:46:23 20.9 27 22.2
003C4329 2019-03-30 22:16:16 20.9 27 22.1
003C4329 2019-03-30 21:46:10 20.9 27 22.2
003C4329 2019-03-30 21:16:04 20.9 27 22.1
003C4329 2019-03-30 20:45:57 21 27 21.9
003C4329 2019-03-30 20:15:49 21 27 21.8
003C4329 2019-03-30 19:45:41 21 27 21.6
003C4329 2019-03-30 19:15:35 21 27 21.6
003C4329 2019-03-30 18:45:25 21 27 21.7
003C4329 2019-03-30 18:15:16 21.1 27 21.6
003C4329 2019-03-30 17:45:08 21.1 27 21.6
003C4329 2019-03-30 17:15:01 21.1 27 21.6
003C4329 2019-03-30 16:44:56 21.1 27 21.7
003C4329 2019-03-30 16:14:47 21.1 27 21.6
003C4329 2019-03-30 15:44:40 21.1 27 21.5
003C4329 2019-03-30 15:14:32 21 27 21.8
003C4329 2019-03-30 14:44:25 21 27 21.6
003C4329 2019-03-30 14:14:17 20.9 27 21.6
003C4329 2019-03-30 13:44:10 20.9 27 21.3
003C4329 2019-03-30 13:14:02 20.9 27 21.3
003C4329 2019-03-30 12:43:55 20.9 27 21.5
003C4329 2019-03-30 12:13:47 20.9 27 21.5
003C4329 2019-03-30 11:43:40 20.8 27 20.3
003C4329 2019-03-30 11:13:32 20.8 27 20.1
003C4329 2019-03-30 10:43:24 20.8 27 20.2
003C4329 2019-03-30 10:13:16 20.8 27 20.2
003C4329 2019-03-30 09:43:08 20.8 27 21.5
003C4329 2019-03-30 09:13:01 20.8 27 21.5
003C4329 2019-03-30 08:42:53 20.8 27 21.6
003C4329 2019-03-30 08:12:46 20.8 27 21.8
003C4329 2019-03-30 07:42:37 20.8 27 21.9
003C4329 2019-03-30 07:12:30 20.8 27 21.9
003C4329 2019-03-30 06:42:24 20.8 27 21.9
003C4329 2019-03-30 06:12:14 20.8 27 22.2
003C4329 2019-03-30 05:42:09 20.8 27 22.2
003C4329 2019-03-30 05:12:00 20.8 27 22.1
003C4329 2019-03-30 04:41:52 20.9 27 22.3
003C4329 2019-03-30 04:11:44 21.1 27 22.2
003C4329 2019-03-30 04:10:33 20.8 28 22.1
003C4329 2019-03-30 03:40:26 20.9 28 22.1
003C4329 2019-03-30 03:10:17 20.9 28 22.1
003C4329 2019-03-30 02:40:09 20.9 28 22
003C4329 2019-03-30 02:10:01 20.9 28 22
003C4329 2019-03-30 01:39:53 21 28 22.1
003C4329 2019-03-30 01:09:44 21 28 22
003C4329 2019-03-30 00:39:36 21 28 21.9
003C4329 2019-03-30 00:09:28 21.1 28 21.8
003C4329 2019-03-29 23:39:21 21.1 28 21.7
003C4329 2019-03-29 23:09:14 21.1 28 21.7
003C4329 2019-03-29 22:39:08 21.1 28 21.5
003C4329 2019-03-29 22:09:00 21.1 28 21.4
003C4329 2019-03-29 21:38:54 21.2 28 20.1
003C4329 2019-03-29 21:08:47 21.1 28 20.1
003C4329 2019-03-29 20:38:40 21.1 28 20.1
003C4329 2019-03-29 20:08:31 21.1 28 19.6
003C4329 2019-03-29 19:38:24 21.1 28 19.7
003C4329 2019-03-29 19:08:17 21.1 28 19.6
003C4329 2019-03-29 18:38:09 21.1 28 19.5
003C4329 2019-03-29 18:08:02 21.2 28 19.1
003C4329 2019-03-29 17:37:54 21.2 28 19
003C4329 2019-03-29 17:07:47 21.2 28 19.1
003C4329 2019-03-29 16:37:40 21.2 28 18.5
003C4329 2019-03-29 16:07:34 21.2 28 18.5
003C4329 2019-03-29 15:37:28 21.2 28 18.5
003C4329 2019-03-29 15:07:22 21.2 28 18.9
003C4329 2019-03-29 14:37:14 21.2 28 18.6
003C4329 2019-03-29 14:07:08 21.2 28 18.7
003C4329 2019-03-29 13:37:02 21.2 28 18.8
003C4329 2019-03-29 13:06:55 21.1 27 18.5
003C4329 2019-03-29 12:36:50 21.1 27 18.7
003C4329 2019-03-29 12:06:43 21.1 27 18.3
003C4329 2019-03-29 11:36:37 21.1 27 18.4
003C4329 2019-03-29 11:06:32 21.1 27 18.9
003C4329 2019-03-29 10:36:25 21.1 27 18.9
003C4329 2019-03-29 10:06:19 21 27 19
003C4329 2019-03-29 09:36:13 21 26 19.2
003C4329 2019-03-29 09:06:07 20.9 26 19.1
003C4329 2019-03-29 08:36:01 20.9 25 19.1
003C4329 2019-03-29 08:05:55 20.9 25 19.1
003C4329 2019-03-29 07:35:48 20.8 25 19.8
003C4329 2019-03-29 07:05:42 20.8 25 19.6
003C4329 2019-03-29 06:35:36 20.8 25 19.9
003C4329 2019-03-29 06:05:29 20.9 25 19.9
003C4329 2019-03-29 05:35:22 20.9 25 21.3
003C4329 2019-03-29 05:05:16 21 25 21.5
003C4329 2019-03-29 04:35:10 21 25 21.6
003C4329 2019-03-29 04:05:02 21 25 21.6
003C4329 2019-03-29 03:34:57 21.1 25 21.8
003C4329 2019-03-29 03:04:18 21.1 25 21.8
003C4329 2019-03-29 02:34:11 21.1 25 21.8
003C4329 2019-03-29 02:04:04 21.2 25 21.8
003C4329 2019-03-29 01:33:57 21.2 25 21.8
003C4329 2019-03-29 01:03:49 21.2 25 21.9
003C4329 2019-03-29 00:33:42 21.2 24 21.9
003C4329 2019-03-29 00:03:34 21.2 24 22
003C4329 2019-03-28 23:33:27 21.2 24 22.1
003C4329 2019-03-28 23:03:19 21.2 24 21.9
003C4329 2019-03-28 22:33:12 21.2 24 22.1
003C4329 2019-03-28 22:03:04 21.2 24 22.1
003C4329 2019-03-28 21:32:57 21.3 24 22
003C4329 2019-03-28 21:02:50 21.3 24 22
003C4329 2019-03-28 20:32:44 21.3 24 21.9
003C4329 2019-03-28 20:02:39 21.3 24 21.8
003C4329 2019-03-28 19:32:33 21.3 24 21.3
003C4329 2019-03-28 19:02:25 21.3 24 21.2
003C4329 2019-03-28 18:32:17 21.3 24 22.2
003C4329 2019-03-28 18:02:10 21.3 24 22.2
003C4329 2019-03-28 17:32:03 21.3 24 21.1
003C4329 2019-03-28 17:01:56 21.3 24 20.7
003C4329 2019-03-28 16:31:48 21.3 23 20.6
003C4329 2019-03-28 16:01:40 21.2 23 20.7
003C4329 2019-03-28 15:31:36 21.2 23 20.7
003C4329 2019-03-28 15:01:26 21.2 23 20.6
003C4329 2019-03-28 14:31:19 21.1 23 20.6
003C4329 2019-03-28 14:01:11 21.1 22 20.5
003C4329 2019-03-28 13:31:05 21.1 22 20.7
003C4329 2019-03-28 13:00:58 21 22 20.7
003C4329 2019-03-28 12:30:51 21 21 20.4
003C4329 2019-03-28 12:00:47 21 21 20.7
003C4329 2019-03-28 11:30:38 21 21 20.6
003C4329 2019-03-28 11:00:31 21 21 20.6
003C4329 2019-03-28 10:30:24 21 20 20.5
003C4329 2019-03-28 10:00:20 20.9 20 20.3
003C4329 2019-03-28 09:30:13 20.9 20 20.5
003C4329 2019-03-28 09:00:04 20.9 20 20.7
003C4329 2019-03-28 08:29:56 20.9 19 20.8
003C4329 2019-03-28 07:59:49 20.8 19 20.9
003C4329 2019-03-28 07:29:42 20.8 19 21.1
003C4329 2019-03-28 06:59:35 20.8 19 21.1
003C4329 2019-03-28 06:29:28 20.8 19 21.1
003C4329 2019-03-28 05:59:21 20.8 19 19.6
003C4329 2019-03-28 05:29:16 20.8 19 19.7
003C4329 2019-03-28 04:59:08 20.8 19 19.6
003C4329 2019-03-28 04:29:01 20.9 19 20.1
003C4329 2019-03-28 03:58:54 20.9 18 20.1
003C4329 2019-03-28 03:28:46 20.9 18 20.3
003C4329 2019-03-28 02:58:39 20.9 18 20.2
003C4329 2019-03-28 02:28:32 21 18 20
003C4329 2019-03-28 01:57:57 20.9 18 20.3
003C4329 2019-03-28 01:27:48 21 18 20.2
003C4329 2019-03-28 00:57:42 21 17 20.1
003C4329 2019-03-28 00:27:38 21 17 21.5
003C4329 2019-03-27 23:57:29 21 17 22.4
003C4329 2019-03-27 23:27:22 21.1 17 23.2
003C4329 2019-03-27 22:57:15 21.1 17 23.8
003C4329 2019-03-27 22:27:09 21.1 17 24
003C4329 2019-03-27 21:57:02 21.1 16 24
003C4329 2019-03-27 21:26:56 21.1 16 24
003C4329 2019-03-27 20:56:50 21.2 16 24
003C4329 2019-03-27 20:26:44 21.2 16 23.9
003C4329 2019-03-27 19:56:37 21.2 16 23.9
003C4329 2019-03-27 19:26:30 21.2 16 23.8
003C4329 2019-03-27 18:56:24 21.3 16 23.8
003C4329 2019-03-27 18:26:17 21.3 16 23.8
003C4329 2019-03-27 17:56:10 21.4 16 23.9
003C4329 2019-03-27 17:26:03 21.4 16 23.8
003C4329 2019-03-27 16:55:57 21.4 16 23.8
003C4329 2019-03-27 16:25:50 21.4 16 23.7
003C4329 2019-03-27 15:55:44 21.4 16 23.6
003C4329 2019-03-27 15:25:37 21.3 16 23.5
003C4329 2019-03-27 14:55:30 21.2 16 23.5
003C4329 2019-03-27 14:25:24 21.1 16 23.5
003C4329 2019-03-27 13:55:18 21 16 23.5
003C4329 2019-03-27 13:25:12 21 16 23.3
003C4329 2019-03-27 12:55:10 20.9 16 24
003C4329 2019-03-27 12:25:00 20.9 15 23.4
003C4329 2019-03-27 11:54:53 20.9 15 22.6
003C4329 2019-03-27 11:24:47 20.8 15 21.5
003C4329 2019-03-27 10:54:41 20.8 15 20.4
003C4329 2019-03-27 10:24:35 20.8 15 20.2
003C4329 2019-03-27 09:54:29 20.7 15 20.3
003C4329 2019-03-27 09:24:22 20.7 15 20.2
003C4329 2019-03-27 08:54:16 20.7 15 20.1
003C4329 2019-03-27 08:24:09 20.7 15 20.4
003C4329 2019-03-27 07:54:01 20.7 15 20.4
003C4329 2019-03-27 07:23:54 20.7 15 20.6
003C4329 2019-03-27 06:53:46 20.7 15 20.8
003C4329 2019-03-27 06:23:40 20.7 15 21
003C4329 2019-03-27 05:53:34 20.7 14 21
003C4329 2019-03-27 05:23:29 20.7 14 21
003C4329 2019-03-27 04:53:24 20.7 14 21.1
003C4329 2019-03-27 04:23:17 20.8 14 21
003C4329 2019-03-27 03:53:12 20.8 14 21
003C4329 2019-03-27 03:23:05 20.8 14 20.9
003C4329 2019-03-27 02:52:58 20.8 14 20.9
003C4329 2019-03-27 02:22:52 20.9 14 20.9
003C4329 2019-03-27 01:52:45 20.9 14 20.9
003C4329 2019-03-27 01:22:39 20.9 14 21.1
003C4329 2019-03-27 00:52:00 21 14 19.9
003C4329 2019-03-27 00:21:53 21 14 19.8
003C4329 2019-03-26 23:51:46 21 14 19.8
003C4329 2019-03-26 23:21:39 21 14 19.7
003C4329 2019-03-26 22:51:32 21.1 14 19.7
003C4329 2019-03-26 22:21:25 21.1 14 19.7
003C4329 2019-03-26 21:51:19 21.2 14 19.6
003C4329 2019-03-26 21:21:12 21.2 14 19.6
003C4329 2019-03-26 20:51:05 21.2 14 19.4
003C4329 2019-03-26 20:20:57 21.3 14 19
003C4329 2019-03-26 19:50:51 21.2 14 19
003C4329 2019-03-26 19:20:43 21.3 14 18.7
003C4329 2019-03-26 18:50:37 21.3 14 18.6
003C4329 2019-03-26 18:20:30 21.4 14 18.1
003C4329 2019-03-26 17:50:25 21.4 14 18
003C4329 2019-03-26 17:20:18 21.4 15 17.9
003C4329 2019-03-26 16:50:13 21.4 15 17.9
003C4329 2019-03-26 16:20:06 21.4 15 17.9
003C4329 2019-03-26 15:49:59 21.3 15 18
003C4329 2019-03-26 15:19:55 21.2 16 17.9
003C4329 2019-03-26 14:49:48 21.1 16 18
003C4329 2019-03-26 14:19:42 20.9 16 20.1
003C4329 2019-03-26 13:49:36 20.9 16 20
003C4329 2019-03-26 13:19:31 20.8 17 19.9
003C4329 2019-03-26 12:49:25 20.7 17 19.7
003C4329 2019-03-26 12:19:18 20.7 17 19.5
003C4329 2019-03-26 11:49:14 20.7 17 19.5
003C4329 2019-03-26 11:19:09 20.6 18 19.4
003C4329 2019-03-26 10:49:03 20.7 18 19.4
003C4329 2019-03-26 10:18:57 20.7 18 19.2
003C4329 2019-03-26 09:48:49 20.7 19 19.1
003C4329 2019-03-26 09:18:44 20.7 19 19
003C4329 2019-03-26 08:48:38 20.7 20 19.1
003C4329 2019-03-26 08:18:32 20.6 20 19.2
003C4329 2019-03-26 07:48:25 20.7 20 19.4
003C4329 2019-03-26 07:18:19 20.7 20 19.5
003C4329 2019-03-26 06:48:11 20.7 20 19.6
003C4329 2019-03-26 06:18:05 20.6 20 19.7
003C4329 2019-03-26 05:47:59 20.6 20 19.9
003C4329 2019-03-26 05:17:52 20.7 20 20
003C4329 2019-03-26 04:47:46 20.7 20 20.2
003C4329 2019-03-26 04:17:39 20.7 20 20.3
003C4329 2019-03-26 03:47:32 20.7 20 20.5
003C4329 2019-03-26 03:17:26 20.7 21 20.5
003C4329 2019-03-26 02:47:20 20.7 21 20.5
003C4329 2019-03-26 02:17:14 20.7 21 20.7
003C4329 2019-03-26 01:47:08 20.7 21 19
003C4329 2019-03-26 01:17:02 20.7 21 19.4
003C4329 2019-03-26 00:46:55 20.8 21 19.7
003C4329 2019-03-26 00:16:49 20.8 21 19.7
003C4329 2019-03-25 23:46:12 20.8 21 21.2
003C4329 2019-03-25 23:16:06 20.9 21 21.3
003C4329 2019-03-25 22:46:00 20.9 21 21.4
003C4329 2019-03-25 22:15:54 20.9 21 21.5
003C4329 2019-03-25 21:45:47 20.9 21 21.6
003C4329 2019-03-25 21:15:41 21 21 21.7
003C4329 2019-03-25 20:45:35 21 21 21.8
003C4329 2019-03-25 20:15:29 21 21 21.9
003C4329 2019-03-25 19:45:25 21 21 22
003C4329 2019-03-25 19:15:17 21 21 21.9
003C4329 2019-03-25 18:45:10 21 21 21.9
003C4329 2019-03-25 18:15:05 21.1 21 21.9
003C4329 2019-03-25 17:44:59 21.1 22 21.8
003C4329 2019-03-25 17:14:52 21.1 23 21.7
003C4329 2019-03-25 16:44:46 21.1 23 21.8
003C4329 2019-03-25 16:14:40 21.1 24 21.8
003C4329 2019-03-25 15:44:33 21.1 24 21.8
003C4329 2019-03-25 15:14:26 21.1 24 21.8
003C4329 2019-03-25 14:44:20 21.1 24 21.9
003C4329 2019-03-25 14:14:14 21.1 24 22
003C4329 2019-03-25 13:44:07 21 24 22
003C4329 2019-03-25 13:14:00 20.9 24 21.8
003C4329 2019-03-25 12:43:54 20.8 24 21.9
003C4329 2019-03-25 12:13:47 20.8 24 22.1
003C4329 2019-03-25 11:43:42 20.7 24 21.2
003C4329 2019-03-25 11:13:35 20.7 24 21.3
003C4329 2019-03-25 10:43:30 20.6 24 21.3
003C4329 2019-03-25 10:13:23 20.5 24 21.3
003C4329 2019-03-25 09:43:18 20.4 24 21.4
003C4329 2019-03-25 09:13:13 20.3 23 21.4
003C4329 2019-03-25 08:43:05 20.3 23 22.4
003C4329 2019-03-25 08:13:00 20.3 23 22.4
003C4329 2019-03-25 07:42:54 20.4 23 22.5
003C4329 2019-03-25 07:12:47 20.4 23 22.4
003C4329 2019-03-25 06:42:40 20.4 23 22.4
003C4329 2019-03-25 06:12:33 20.4 23 22.6
003C4329 2019-03-25 05:42:27 20.4 23 22.6
003C4329 2019-03-25 05:12:22 20.4 23 22.8
003C4329 2019-03-25 04:42:15 20.4 23 22.8
003C4329 2019-03-25 04:12:09 20.4 23 22.7
003C4329 2019-03-25 03:42:02 20.4 23 22.8
003C4329 2019-03-25 03:11:56 20.4 23 22.7
003C4329 2019-03-25 02:41:49 20.4 23 22.7
003C4329 2019-03-25 02:11:43 20.5 23 22.9
003C4329 2019-03-25 01:41:37 20.5 23 22.7
003C4329 2019-03-25 01:11:31 20.6 23 22.8
003C4329 2019-03-25 00:41:25 20.6 23 22.9
003C4329 2019-03-25 00:11:18 20.7 23 22.9
003C4329 2019-03-24 23:41:12 20.7 23 22.9
003C4329 2019-03-24 23:11:04 20.7 23 22.9
003C4329 2019-03-24 22:40:24 20.8 23 23.1
003C4329 2019-03-24 22:10:15 20.8 23 23.2
003C4329 2019-03-24 21:40:07 20.9 23 23.2
003C4329 2019-03-24 21:09:59 20.9 23 23.2
003C4329 2019-03-24 20:39:50 20.9 23 22.4
003C4329 2019-03-24 20:09:41 21 23 22.4
003C4329 2019-03-24 19:39:32 21 23 22.3
003C4329 2019-03-24 19:09:24 21 23 22.4
003C4329 2019-03-24 18:39:16 21 23 22.4
003C4329 2019-03-24 18:09:08 21 24 22.1
003C4329 2019-03-24 17:39:01 21 24 22.1
003C4329 2019-03-24 17:08:53 21 24 22
003C4329 2019-03-24 16:38:45 20.9 24 22
003C4329 2019-03-24 16:08:38 20.8 24 23
003C4329 2019-03-24 15:38:31 20.7 24 22.8
003C4329 2019-03-24 15:08:23 20.6 24 22.9
003C4329 2019-03-24 14:38:15 20.5 24 22.9
003C4329 2019-03-24 14:08:07 20.4 24 23
003C4329 2019-03-24 13:37:59 20.4 24 23
003C4329 2019-03-24 13:07:53 20.4 24 23.1
003C4329 2019-03-24 12:37:46 20.3 24 23.1
003C4329 2019-03-24 12:07:39 20.3 24 23
003C4329 2019-03-24 11:37:31 20.3 24 23
003C4329 2019-03-24 11:07:23 20.3 24 23
003C4329 2019-03-24 10:37:16 20.3 24 23
003C4329 2019-03-24 10:07:08 20.3 24 22.8
003C4329 2019-03-24 09:37:01 20.3 23 22.7
003C4329 2019-03-24 09:06:55 20.3 24 22.7
003C4329 2019-03-24 08:36:47 20.3 23 22.8
003C4329 2019-03-24 08:06:40 20.3 23 22.9
003C4329 2019-03-24 07:36:34 20.3 23 22.8
003C4329 2019-03-24 07:06:27 20.3 23 22.8
003C4329 2019-03-24 06:36:21 20.3 23 22.7
003C4329 2019-03-24 06:06:14 20.3 23 23
003C4329 2019-03-24 05:36:07 20.3 23 23.2
003C4329 2019-03-24 05:06:00 20.3 23 23.3
003C4329 2019-03-24 04:35:52 20.3 23 23.5
003C4329 2019-03-24 04:05:44 20.4 23 23.7
003C4329 2019-03-24 03:35:36 20.3 23 23
003C4329 2019-03-24 03:05:29 20.4 23 23.1
003C4329 2019-03-24 02:35:21 20.3 23 23.8
003C4329 2019-03-24 02:05:13 20.4 23 23.8
003C4329 2019-03-24 01:35:06 20.4 23 23.6
003C4329 2019-03-24 01:04:58 20.4 23 23.5
003C4329 2019-03-24 00:34:51 20.4 23 23.5
003C4329 2019-03-24 00:04:43 20.4 23 23.3
003C4329 2019-03-23 23:34:36 20.4 23 23.2
003C4329 2019-03-23 23:04:28 20.4 22 23.2
003C4329 2019-03-23 22:34:20 20.4 22 23.2
003C4329 2019-03-23 22:04:12 20.4 22 23.1
003C4329 2019-03-23 21:33:34 20.4 22 23.3
003C4329 2019-03-23 21:03:26 20.4 22 23.2
003C4329 2019-03-23 20:33:19 20.4 22 23.2
003C4329 2019-03-23 20:03:12 20.5 22 23.2
003C4329 2019-03-23 19:33:04 20.4 22 23.3
003C4329 2019-03-23 19:02:58 20.5 22 23.4
003C4329 2019-03-23 18:32:50 20.4 22 23.4
003C4329 2019-03-23 18:02:44 20.4 22 23.2
003C4329 2019-03-23 17:32:37 20.4 21 23
003C4329 2019-03-23 17:02:30 20.4 21 23
003C4329 2019-03-23 16:32:23 20.4 21 22.6
003C4329 2019-03-23 16:02:15 20.4 21 22.6
003C4329 2019-03-23 15:32:08 20.4 21 22.7
003C4329 2019-03-23 15:02:01 20.5 21 22.7
003C4329 2019-03-23 14:31:53 20.4 21 22
003C4329 2019-03-23 14:01:46 20.5 21 22
003C4329 2019-03-23 13:31:38 20.5 21 22
003C4329 2019-03-23 13:01:30 20.5 21 22
003C4329 2019-03-23 12:31:22 20.5 21 22
003C4329 2019-03-23 12:01:13 20.5 20 22.1
003C4329 2019-03-23 11:31:05 20.5 20 22
003C4329 2019-03-23 11:00:58 20.5 20 22
003C4329 2019-03-23 10:30:51 20.5 20 21.9
003C4329 2019-03-23 10:00:44 20.5 20 21.8
003C4329 2019-03-23 09:30:35 20.5 20 21.6
003C4329 2019-03-23 09:00:27 20.5 20 21.5
003C4329 2019-03-23 08:30:20 20.5 20 21.4
003C4329 2019-03-23 08:00:13 20.5 20 21.2
003C4329 2019-03-23 07:30:05 20.5 20 20.9
003C4329 2019-03-23 06:59:57 20.6 20 20.7
003C4329 2019-03-23 06:29:51 20.6 20 20.4
003C4329 2019-03-23 05:59:45 20.6 20 20.2
003C4329 2019-03-23 05:29:37 20.6 19 20
003C4329 2019-03-23 04:59:31 20.6 19 19.8
003C4329 2019-03-23 04:29:21 20.6 19 20
003C4329 2019-03-23 03:59:14 20.7 19 20.2
003C4329 2019-03-23 03:29:06 20.7 19 19.8
003C4329 2019-03-23 02:58:57 20.7 19 19.4
003C4329 2019-03-23 02:28:50 20.8 19 19.3
003C4329 2019-03-23 01:58:43 20.8 19 18.8
003C4329 2019-03-23 01:28:36 20.9 19 18.4
003C4329 2019-03-23 00:58:27 21 19 18.2
003C4329 2019-03-23 00:28:20 21 19 18.2
003C4329 2019-03-22 23:58:12 21.1 18 20.2
003C4329 2019-03-22 23:28:03 21.1 18 20.2
003C4329 2019-03-22 22:57:56 21.2 18 20.1
003C4329 2019-03-22 22:27:48 21.3 18 20.3
003C4329 2019-03-22 21:57:40 21.3 18 20.4
003C4329 2019-03-22 21:27:31 21.4 18 20.4
003C4329 2019-03-22 20:57:21 21.4 18 20.5
003C4329 2019-03-22 20:26:39 21.4 18 20.5
003C4329 2019-03-22 19:56:30 21.4 18 20.5
003C4329 2019-03-22 19:26:24 21.3 17 20.7
003C4329 2019-03-22 18:56:14 21.3 17 20.7
003C4329 2019-03-22 18:26:04 21.3 17 20.9
003C4329 2019-03-22 17:55:55 21.3 17 20.9
003C4329 2019-03-22 17:25:46 21.3 17 21
003C4329 2019-03-22 16:55:38 21.2 17 20.9
003C4329 2019-03-22 16:25:28 21.2 17 21.1
003C4329 2019-03-22 15:55:19 21.1 18 20.9
003C4329 2019-03-22 15:25:10 21 18 21
003C4329 2019-03-22 14:55:01 20.9 19 21
003C4329 2019-03-22 14:24:53 20.8 19 21.1
003C4329 2019-03-22 13:54:43 20.8 19 21.1
003C4329 2019-03-22 13:24:35 20.7 20 21.3
003C4329 2019-03-22 12:54:29 20.7 20 21.3
003C4329 2019-03-22 12:24:18 20.7 21 21.4
003C4329 2019-03-22 11:54:10 20.7 21 20
003C4329 2019-03-22 11:24:02 20.7 21 20
003C4329 2019-03-22 10:53:55 20.7 22 20.1
003C4329 2019-03-22 10:23:47 20.7 22 20
003C4329 2019-03-22 09:53:37 20.7 23 19.7
003C4329 2019-03-22 09:23:28 20.6 23 19.8
003C4329 2019-03-22 08:53:19 20.7 24 19.9
003C4329 2019-03-22 08:23:10 20.7 24 20.1
003C4329 2019-03-22 07:53:00 20.7 24 20
003C4329 2019-03-22 07:22:52 20.7 25 20.1
003C4329 2019-03-22 06:52:44 20.7 25 20
003C4329 2019-03-22 06:22:39 20.7 25 20
003C4329 2019-03-22 05:52:28 20.7 25 19.8
003C4329 2019-03-22 05:22:21 20.7 26 20.1
003C4329 2019-03-22 04:52:13 20.7 26 20
003C4329 2019-03-22 04:22:05 20.7 26 20.2
003C4329 2019-03-22 03:51:55 20.7 26 20
003C4329 2019-03-22 03:21:47 20.7 27 20
003C4329 2019-03-22 02:51:40 20.8 27 19.8
003C4329 2019-03-22 02:21:31 20.8 27 19.8
003C4329 2019-03-22 01:51:24 20.8 27 19.7
003C4329 2019-03-22 01:21:15 20.8 28 20
003C4329 2019-03-22 00:51:08 20.8 28 19.7
003C4329 2019-03-22 00:20:59 20.9 28 19.7
003C4329 2019-03-21 23:50:50 20.9 28 19.8
003C4329 2019-03-21 23:20:42 20.9 28 20
003C4329 2019-03-21 22:50:34 20.9 28 19.7
003C4329 2019-03-21 22:20:27 21 28 19.6
003C4329 2019-03-21 21:50:20 21 28 19.5
003C4329 2019-03-21 21:20:13 21 28 21.1
003C4329 2019-03-21 20:50:04 21 28 20.9
003C4329 2019-03-21 20:19:57 21 28 20.8
003C4329 2019-03-21 19:49:50 21 28 20.6
003C4329 2019-03-21 19:19:08 21.1 28 20.5
003C4329 2019-03-21 18:49:00 21.2 28 20.5
003C4329 2019-03-21 18:18:52 21.2 27 20.5
003C4329 2019-03-21 17:48:44 21.2 27 20.3
003C4329 2019-03-21 17:18:37 21.3 27 20
003C4329 2019-03-21 16:48:29 21.3 27 20
003C4329 2019-03-21 16:18:21 21.4 27 19.8
003C4329 2019-03-21 15:48:15 21.3 28 19.7
003C4329 2019-03-21 15:18:05 21.3 28 19.6
003C4329 2019-03-21 14:47:57 21.2 28 19.6
003C4329 2019-03-21 14:17:49 21.1 27 19.4
003C4329 2019-03-21 13:47:41 21.1 26 19.1
003C4329 2019-03-21 13:17:34 21 26 18.8
003C4329 2019-03-21 12:47:25 20.9 26 18.8
003C4329 2019-03-21 12:17:18 20.9 26 18.8
003C4329 2019-03-21 11:47:09 20.9 25 18.5
003C4329 2019-03-21 11:17:00 20.8 25 18.2
003C4329 2019-03-21 10:46:52 20.8 25 18.3
003C4329 2019-03-21 10:16:45 20.7 25 18.2
003C4329 2019-03-21 09:46:36 20.7 25 14.3
003C4329 2019-03-21 09:16:28 20.7 25 14.4
003C4329 2019-03-21 08:46:21 20.6 25 14.4
003C4329 2019-03-21 08:16:15 20.7 25 14.4
003C4329 2019-03-21 07:46:05 20.7 25 14.3
003C4329 2019-03-21 07:15:57 20.6 25 14.2
003C4329 2019-03-21 06:45:49 20.6 25 14.2
003C4329 2019-03-21 06:15:41 20.7 25 13.9
003C4329 2019-03-21 05:45:34 20.6 26 14.1
003C4329 2019-03-21 05:15:27 20.7 26 14.2
003C4329 2019-03-21 04:45:20 20.7 26 14.4
003C4329 2019-03-21 04:15:11 20.7 26 14.6
003C4329 2019-03-21 03:45:08 20.7 26 15.3
003C4329 2019-03-21 03:14:57 20.7 26 15.5
003C4329 2019-03-21 02:44:52 20.7 26 15.7
003C4329 2019-03-21 02:14:42 20.7 26 16.6
003C4329 2019-03-21 01:44:37 20.7 26 17.1
003C4329 2019-03-21 01:14:30 20.7 26 17.2
003C4329 2019-03-21 00:44:21 20.7 26 17.4
003C4329 2019-03-21 00:14:12 20.7 26 17.8
003C4329 2019-03-20 23:44:05 20.7 26 20
003C4329 2019-03-20 23:13:57 20.7 26 20.1
003C4329 2019-03-20 22:43:51 20.8 26 20.4
003C4329 2019-03-20 22:13:45 20.8 26 20.7
003C4329 2019-03-20 21:43:36 20.8 26 21
003C4329 2019-03-20 21:13:29 20.8 26 21.2
003C4329 2019-03-20 20:43:22 20.8 26 21.2
003C4329 2019-03-20 20:13:15 20.8 26 21.2
003C4329 2019-03-20 19:43:07 20.9 26 21.3
003C4329 2019-03-20 19:13:00 20.9 26 21.6
003C4329 2019-03-20 18:42:53 21 26 21.8
003C4329 2019-03-20 18:12:13 21 26 21.8
003C4329 2019-03-20 17:42:06 21 26 22
003C4329 2019-03-20 17:11:58 21.1 26 21.9
003C4329 2019-03-20 16:41:52 21.1 26 22
003C4329 2019-03-20 16:11:44 21.2 26 22.1
003C4329 2019-03-20 15:41:34 21.1 26 22.1
003C4329 2019-03-20 15:11:27 21.1 26 22.1
003C4329 2019-03-20 14:41:19 21.1 25 22.3
003C4329 2019-03-20 14:11:11 21.1 25 22.1
003C4329 2019-03-20 13:41:03 21 26 22
003C4329 2019-03-20 13:10:56 21 25 22.1
003C4329 2019-03-20 12:40:48 20.9 25 22.1
003C4329 2019-03-20 12:10:40 20.9 25 22.3
003C4329 2019-03-20 11:40:31 20.8 25 21.4
003C4329 2019-03-20 11:10:23 20.8 25 21.2
003C4329 2019-03-20 10:40:16 20.7 25 21.1
003C4329 2019-03-20 10:10:08 20.6 25 21.1
003C4329 2019-03-20 09:40:01 20.6 25 21.2
003C4329 2019-03-20 09:09:55 20.6 25 21
003C4329 2019-03-20 08:39:49 20.6 26 21.1
003C4329 2019-03-20 08:09:43 20.6 26 21.3
003C4329 2019-03-20 07:39:37 20.6 26 21.2
003C4329 2019-03-20 07:09:30 20.6 27 21.1
003C4329 2019-03-20 06:39:24 20.6 27 21.1
003C4329 2019-03-20 06:09:16 20.6 27 21.3
003C4329 2019-03-20 05:39:09 20.6 27 21.4
003C4329 2019-03-20 05:09:02 20.6 27 21.3
003C4329 2019-03-20 04:38:54 20.6 27 21.4
003C4329 2019-03-20 04:08:46 20.6 27 21.6
003C4329 2019-03-20 03:38:39 20.7 27 21.6
003C4329 2019-03-20 03:08:32 20.7 28 21.8
003C4329 2019-03-20 02:38:25 20.7 28 21.9
003C4329 2019-03-20 02:08:18 20.7 28 21.9
003C4329 2019-03-20 01:38:11 20.7 28 21.9
003C4329 2019-03-20 01:08:02 20.7 28 22.1
003C4329 2019-03-20 00:37:53 20.7 28 22
003C4329 2019-03-20 00:07:45 20.7 28 22
003C4329 2019-03-19 23:37:37 20.7 28 21.8
003C4329 2019-03-19 23:07:29 20.8 28 21.7
003C4329 2019-03-19 22:37:21 20.8 28 21.7
003C4329 2019-03-19 22:07:13 20.8 29 21.9
003C4329 2019-03-19 21:37:04 20.8 29 21.7
003C4329 2019-03-19 21:06:55 20.9 29 21.6
003C4329 2019-03-19 20:36:50 20.9 29 21.7
003C4329 2019-03-19 20:06:40 21 29 21.6
003C4329 2019-03-19 19:36:30 21 29 21.4
003C4329 2019-03-19 19:06:20 21.1 29 21.6
003C4329 2019-03-19 18:36:12 21.1 29 21.7
003C4329 2019-03-19 18:06:03 21.2 29 21.5
003C4329 2019-03-19 17:35:55 21.3 30 21.5
003C4329 2019-03-19 17:05:13 21.3 30 21.5
003C4329 2019-03-19 16:35:04 21.2 30 21.3
003C4329 2019-03-19 16:04:56 21.2 30 21.3
003C4329 2019-03-19 15:34:48 21.2 29 21.3
003C4329 2019-03-19 15:04:40 21.2 29 20.9
003C4329 2019-03-19 14:34:32 21.2 29 20.8
003C4329 2019-03-19 14:04:24 21.2 29 20.7
003C4329 2019-03-19 13:34:16 21.1 29 20.7
003C4329 2019-03-19 13:04:07 21.1 29 20.7
003C4329 2019-03-19 12:33:59 21 29 20.7
003C4329 2019-03-19 12:03:50 20.9 29 20.8
003C4329 2019-03-19 11:33:42 20.9 29 20.8
003C4329 2019-03-19 11:03:34 20.8 29 20.7
003C4329 2019-03-19 10:33:27 20.7 28 20.7
003C4329 2019-03-19 10:03:21 20.7 28 20.5
003C4329 2019-03-19 09:33:14 20.7 27 20.5
003C4329 2019-03-19 09:03:05 20.6 27 20.3
003C4329 2019-03-19 08:32:58 20.6 27 20.2
003C4329 2019-03-19 08:02:51 20.6 27 20.2
003C4329 2019-03-19 07:32:44 20.6 27 20.1
003C4329 2019-03-19 07:02:35 20.6 27 19.8
003C4329 2019-03-19 06:32:27 20.6 27 19.8
003C4329 2019-03-19 06:02:19 20.6 27 19.5
003C4329 2019-03-19 05:32:11 20.6 27 19.4
003C4329 2019-03-19 05:02:02 20.6 27 19.4
003C4329 2019-03-19 04:31:54 20.6 27 19.7
003C4329 2019-03-19 04:01:47 20.6 27 19.8
003C4329 2019-03-19 03:31:36 20.6 27 19.5
003C4329 2019-03-19 03:01:28 20.6 27 19.9
003C4329 2019-03-19 02:31:20 20.6 27 19.9
003C4329 2019-03-19 02:01:12 20.6 27 19.8
003C4329 2019-03-19 01:31:04 20.7 27 19.6
003C4329 2019-03-19 01:00:56 20.7 27 19.6
003C4329 2019-03-19 00:30:48 20.7 27 19.4
003C4329 2019-03-19 00:00:40 20.7 27 19.3
003C4329 2019-03-18 23:30:33 20.7 27 19.4
003C4329 2019-03-18 23:00:25 20.7 27 19.5
003C4329 2019-03-18 22:30:18 20.7 27 19.7
003C4329 2019-03-18 22:00:10 20.7 27 19.7
003C4329 2019-03-18 21:30:03 20.7 27 19.9
003C4329 2019-03-18 21:00:00 20.7 27 20
003C4329 2019-03-18 20:29:49 20.8 27 20.4
003C4329 2019-03-18 19:59:40 20.8 27 20.6
003C4329 2019-03-18 19:29:32 20.8 27 20.8
003C4329 2019-03-18 18:59:25 20.9 27 20.8
003C4329 2019-03-18 18:29:17 20.9 27 20.8
003C4329 2019-03-18 17:59:07 21 27 21
003C4329 2019-03-18 17:28:58 21 27 21
003C4329 2019-03-18 16:58:49 21 27 21.2
003C4329 2019-03-18 16:28:39 21 27 21.1
003C4329 2019-03-18 15:57:57 20.9 28 21.1
003C4329 2019-03-18 15:27:48 20.9 27 21
003C4329 2019-03-18 14:57:40 20.9 27 21.2
003C4329 2019-03-18 14:27:32 20.9 27 21.4
003C4329 2019-03-18 13:57:23 20.8 27 21.5
003C4329 2019-03-18 13:27:14 20.8 27 21.4
003C4329 2019-03-18 12:57:06 20.8 27 21.4
003C4329 2019-03-18 12:26:57 20.8 27 21.3
003C4329 2019-03-18 11:56:48 20.8 27 21.2
003C4329 2019-03-18 11:26:41 20.7 27 21.1
003C4329 2019-03-18 10:56:32 20.7 27 20.9
003C4329 2019-03-18 10:26:24 20.7 27 20.9
003C4329 2019-03-18 09:56:15 20.7 27 21
003C4329 2019-03-18 09:26:06 20.6 27 20.7
003C4329 2019-03-18 08:55:57 20.6 27 20.5
003C4329 2019-03-18 08:25:46 20.6 27 20.1
003C4329 2019-03-18 07:55:37 20.6 27 19.9
003C4329 2019-03-18 07:25:28 20.6 27 19.7
003C4329 2019-03-18 06:55:19 20.6 27 19.5
003C4329 2019-03-18 06:25:11 20.6 27 19.5
003C4329 2019-03-18 05:55:02 20.6 27 19.1
003C4329 2019-03-18 05:24:53 20.6 27 18.9
003C4329 2019-03-18 04:54:45 20.6 27 18.6
003C4329 2019-03-18 04:24:38 20.6 27 18.3
003C4329 2019-03-18 03:54:29 20.6 27 18
003C4329 2019-03-18 03:24:22 20.6 27 17.7
003C4329 2019-03-18 02:54:13 20.6 27 17.5
003C4329 2019-03-18 02:24:05 20.6 26 17.1
003C4329 2019-03-18 01:53:56 20.6 26 16.5
003C4329 2019-03-18 01:23:48 20.6 26 16.3
003C4329 2019-03-18 00:53:39 20.6 26 16.3
003C4329 2019-03-18 00:23:32 20.6 26 16.2
003C4329 2019-03-17 23:53:23 20.7 26 16.4
003C4329 2019-03-17 23:23:19 20.6 26 15.9
003C4329 2019-03-17 22:53:09 20.6 26 15.9
003C4329 2019-03-17 22:23:01 20.6 26 16
003C4329 2019-03-17 21:52:52 20.6 26 16
003C4329 2019-03-17 21:22:44 20.6 26 15.6
003C4329 2019-03-17 20:52:35 20.6 26 15.8
003C4329 2019-03-17 20:22:28 20.6 26 16.2
003C4329 2019-03-17 19:52:18 20.6 26 16.2
003C4329 2019-03-17 19:22:11 20.6 26 19
003C4329 2019-03-17 18:52:08 20.7 26 19.1
003C4329 2019-03-17 18:21:59 20.6 26 20.8
003C4329 2019-03-17 17:51:50 20.6 26 20.8
003C4329 2019-03-17 17:21:41 20.7 26 20.8
003C4329 2019-03-17 16:51:34 20.7 27 20.8
003C4329 2019-03-17 16:21:26 20.7 26 20.8
003C4329 2019-03-17 15:51:18 20.7 27 20.8
003C4329 2019-03-17 15:21:11 20.7 26 20.8
003C4329 2019-03-17 14:50:31 20.6 27 20.8
003C4329 2019-03-17 14:20:22 20.7 27 20.8
003C4329 2019-03-17 13:50:14 20.7 27 20.8
003C4329 2019-03-17 13:20:06 20.7 27 20.8
003C4329 2019-03-17 12:49:58 20.7 27 20.8
003C4329 2019-03-17 12:19:53 20.7 27 21
003C4329 2019-03-17 11:49:44 20.7 27 21
003C4329 2019-03-17 11:19:35 20.7 27 21.1
003C4329 2019-03-17 10:49:30 20.7 27 21.1
003C4329 2019-03-17 10:19:20 20.7 27 21
003C4329 2019-03-17 09:49:11 20.6 27 21
003C4329 2019-03-17 09:19:03 20.7 27 20.9
003C4329 2019-03-17 08:48:55 20.7 27 21
003C4329 2019-03-17 08:18:47 20.6 27 21
003C4329 2019-03-17 07:48:39 20.7 27 21
003C4329 2019-03-17 07:18:30 20.7 27 21
003C4329 2019-03-17 06:48:23 20.6 27 19.3
003C4329 2019-03-17 06:18:15 20.6 27 19.3
003C4329 2019-03-17 05:48:08 20.7 27 16.6
003C4329 2019-03-17 05:18:01 20.6 27 16.6
003C4329 2019-03-17 04:47:54 20.7 27 16.5
003C4329 2019-03-17 04:17:46 20.7 27 16.6
003C4329 2019-03-17 03:47:37 20.7 27 16.6
003C4329 2019-03-17 02:47:25 20.7 27 16.7
003C4329 2019-03-17 02:17:16 20.7 27 16.6
003C4329 2019-03-17 01:47:08 20.6 27 16.6
003C4329 2019-03-17 00:46:56 20.6 27 16.5
003C4329 2019-03-17 00:16:48 20.6 27 16.2
003C4329 2019-03-16 23:46:41 20.6 27 19.1
003C4329 2019-03-16 23:16:34 20.7 27 19
003C4329 2019-03-16 22:46:28 20.6 26 19
003C4329 2019-03-16 22:16:20 20.6 26 18.9
003C4329 2019-03-16 21:46:12 20.7 26 18.7
003C4329 2019-03-16 21:16:05 20.7 26 19
003C4329 2019-03-16 20:46:00 20.7 26 19.1
003C4329 2019-03-16 20:15:51 20.7 26 19.1
003C4329 2019-03-16 19:45:42 20.7 26 19.2
003C4329 2019-03-16 19:15:34 20.7 26 19.2
003C4329 2019-03-16 18:45:25 20.7 26 20.8
003C4329 2019-03-16 18:15:16 20.7 26 20.8
003C4329 2019-03-16 17:45:09 20.7 26 20.8
003C4329 2019-03-16 17:14:59 20.7 26 20.8
003C4329 2019-03-16 16:44:54 20.7 26 20.8
003C4329 2019-03-16 16:14:44 20.7 26 21
003C4329 2019-03-16 15:44:36 20.7 26 20.9
003C4329 2019-03-16 15:14:28 20.7 26 21
003C4329 2019-03-16 14:44:19 20.7 26 21
003C4329 2019-03-16 14:14:10 20.7 26 21.1
003C4329 2019-03-16 13:43:28 20.7 26 21.1
003C4329 2019-03-16 13:13:21 20.7 26 21.1
003C4329 2019-03-16 12:43:12 20.7 26 21.1
003C4329 2019-03-16 12:13:06 20.7 26 21.1
003C4329 2019-03-16 11:42:54 20.7 26 22.2
003C4329 2019-03-16 11:12:44 20.7 26 21.1
003C4329 2019-03-16 10:42:36 20.7 26 21
003C4329 2019-03-16 10:12:28 20.7 26 21.1
003C4329 2019-03-16 09:42:17 20.7 26 21
003C4329 2019-03-16 09:12:07 20.7 26 20.9
003C4329 2019-03-16 08:41:58 20.7 26 20.8
003C4329 2019-03-16 08:11:50 20.7 26 20.8
003C4329 2019-03-16 07:41:41 20.7 26 20.9
003C4329 2019-03-16 07:11:32 20.7 26 20.9
003C4329 2019-03-16 06:41:23 20.7 26 20.9
003C4329 2019-03-16 06:11:14 20.7 26 19.4
003C4329 2019-03-16 05:41:05 20.7 26 19.6
003C4329 2019-03-16 05:10:56 20.7 26 19.5
003C4329 2019-03-16 04:40:48 20.7 26 19.7
003C4329 2019-03-16 04:10:39 20.7 26 19.6
003C4329 2019-03-16 03:40:29 20.7 26 19.8
003C4329 2019-03-16 03:10:20 20.7 26 19.9
003C4329 2019-03-16 02:40:12 20.7 26 19.9
003C4329 2019-03-16 02:10:02 20.7 26 19.8
003C4329 2019-03-16 01:39:53 20.7 26 19.7
003C4329 2019-03-16 01:09:44 20.7 26 19.7
003C4329 2019-03-16 00:39:36 20.7 26 19.8
003C4329 2019-03-16 00:09:27 20.7 26 19.9
003C4329 2019-03-15 23:39:17 20.7 26 19.9
003C4329 2019-03-15 23:09:08 20.7 26 17.8
003C4329 2019-03-15 22:39:00 20.8 26 17.9
003C4329 2019-03-15 22:08:49 20.8 26 18
003C4329 2019-03-15 21:38:41 20.8 26 18.4
003C4329 2019-03-15 21:08:30 20.8 26 18.5
003C4329 2019-03-15 20:38:20 20.8 26 18.6
003C4329 2019-03-15 20:08:09 20.8 26 18.9
003C4329 2019-03-15 19:38:01 20.8 26 18.8
003C4329 2019-03-15 19:07:49 20.8 26 18.7
003C4329 2019-03-15 18:37:40 20.8 26 18.6
003C4329 2019-03-15 18:07:34 20.9 26 18.7
003C4329 2019-03-15 17:37:22 20.9 26 20.4
003C4329 2019-03-15 17:07:14 20.8 26 20.3
003C4329 2019-03-15 16:37:05 20.8 26 20.5
003C4329 2019-03-15 16:06:56 20.8 26 20.5
003C4329 2019-03-15 15:36:48 20.9 26 20.6
003C4329 2019-03-15 15:06:38 20.9 26 20.4
003C4329 2019-03-15 14:36:30 20.9 26 20.3
003C4329 2019-03-15 14:06:22 20.9 26 20.4
003C4329 2019-03-15 13:36:12 20.9 26 20.6
003C4329 2019-03-15 13:06:07 21.1 25 20.8
003C4329 2019-03-15 13:04:54 20.8 26 20.9
003C4329 2019-03-15 12:34:46 20.8 26 20.9
003C4329 2019-03-15 12:04:42 20.8 25 20.8
003C4329 2019-03-15 11:34:29 20.8 25 20.8
003C4329 2019-03-15 11:04:21 20.8 25 20.9
003C4329 2019-03-15 10:34:13 20.7 25 20.9
003C4329 2019-03-15 10:04:05 20.7 25 22.1
003C4329 2019-03-15 09:33:56 20.7 25 21.9
003C4329 2019-03-15 09:03:48 20.7 25 22
003C4329 2019-03-15 08:33:40 20.7 24 22.1
003C4329 2019-03-15 08:03:32 20.7 24 22.2
003C4329 2019-03-15 07:33:24 20.7 24 22.2
003C4329 2019-03-15 07:03:16 20.7 24 22.3
003C4329 2019-03-15 06:33:09 20.7 24 22.4
003C4329 2019-03-15 06:03:01 20.7 24 22.4
003C4329 2019-03-15 05:32:53 20.7 24 21.4
003C4329 2019-03-15 05:02:45 20.7 24 21.5
003C4329 2019-03-15 04:32:36 20.7 24 21.4
003C4329 2019-03-15 04:02:28 20.7 24 21.3
003C4329 2019-03-15 03:32:20 20.7 24 21.2
003C4329 2019-03-15 03:02:11 20.7 24 21.1
003C4329 2019-03-15 02:32:02 20.7 24 21.1
003C4329 2019-03-15 02:01:55 20.7 24 21.2
003C4329 2019-03-15 01:31:47 20.7 24 21
003C4329 2019-03-15 01:01:39 20.7 24 20.8
003C4329 2019-03-15 00:31:30 20.7 23 20.7
003C4329 2019-03-15 00:01:21 20.7 23 20.6
003C4329 2019-03-14 23:31:13 20.8 23 20.7
003C4329 2019-03-14 23:01:06 20.8 23 20.9
003C4329 2019-03-14 22:30:58 20.8 23 20.7
003C4329 2019-03-14 22:00:50 20.8 23 20.7
003C4329 2019-03-14 21:30:42 20.9 23 19
003C4329 2019-03-14 21:00:33 20.9 23 19
003C4329 2019-03-14 20:30:25 20.9 23 18.7
003C4329 2019-03-14 20:00:16 20.9 23 18.3
003C4329 2019-03-14 19:30:09 20.9 23 17.8
003C4329 2019-03-14 19:00:02 20.9 23 17.8
003C4329 2019-03-14 18:29:53 21 23 17.5
003C4329 2019-03-14 17:59:45 21 23 17.3
003C4329 2019-03-14 17:29:37 21 23 17
003C4329 2019-03-14 16:59:30 21 23 16.5
003C4329 2019-03-14 16:29:21 21 23 16
003C4329 2019-03-14 15:59:13 21 23 16
003C4329 2019-03-14 15:29:05 21 23 16
003C4329 2019-03-14 14:58:57 21 23 16
003C4329 2019-03-14 14:28:49 21 23 16
003C4329 2019-03-14 13:58:42 21 23 16.5
003C4329 2019-03-14 13:28:35 20.9 23 15.8
003C4329 2019-03-14 12:58:28 20.9 22 15.9
003C4329 2019-03-14 12:28:22 21.1 22 16.1
003C4329 2019-03-14 12:27:10 20.9 22 19.1
003C4329 2019-03-14 11:57:02 20.8 22 19.1
003C4329 2019-03-14 11:26:53 20.8 22 19
003C4329 2019-03-14 10:56:47 20.8 21 18.6
003C4329 2019-03-14 10:26:42 20.8 21 18.7
003C4329 2019-03-14 09:56:30 20.7 21 18.7
003C4329 2019-03-14 09:26:23 20.7 20 18.5
003C4329 2019-03-14 08:56:15 20.7 20 18.5
003C4329 2019-03-14 05:55:34 20.7 18 18.6
003C4329 2019-03-14 04:55:18 20.7 18 18.5
003C4329 2019-03-14 04:25:11 20.7 18 18.5
003C4329 2019-03-14 03:55:04 20.7 18 18.5
003C4329 2019-03-14 03:24:57 20.6 18 18.6
003C4329 2019-03-14 02:54:50 20.7 18 20.5
003C4329 2019-03-14 02:24:43 20.7 18 21.8
003C4329 2019-03-14 01:54:34 20.7 17 22.7
003C4329 2019-03-14 01:24:26 20.7 17 22.7
003C4329 2019-03-14 00:54:18 20.7 17 22.7
003C4329 2019-03-14 00:24:10 20.7 17 22.6
003C4329 2019-03-13 23:54:02 20.7 17 21.5
003C4329 2019-03-13 23:23:55 20.7 17 21.6
003C4329 2019-03-13 22:53:50 20.7 17 21.5
003C4329 2019-03-13 22:23:40 20.7 17 21.5
003C4329 2019-03-13 21:53:31 20.7 17 21.5
003C4329 2019-03-13 21:23:24 20.7 17 21.7
003C4329 2019-03-13 20:53:15 20.7 17 21.7
003C4329 2019-03-13 20:23:08 20.8 17 21.7
003C4329 2019-03-13 19:52:59 20.8 16 21.7
003C4329 2019-03-13 19:22:52 20.8 16 21.8
003C4329 2019-03-13 18:52:44 20.9 16 21.9
003C4329 2019-03-13 18:22:36 20.9 16 22
003C4329 2019-03-13 17:52:27 21 16 22
003C4329 2019-03-13 17:22:19 21 16 22
003C4329 2019-03-13 16:52:11 21 16 22.2
003C4329 2019-03-13 16:22:05 21 16 22.2
003C4329 2019-03-13 15:51:55 20.9 16 22.3
003C4329 2019-03-13 15:21:47 20.9 16 22.4
003C4329 2019-03-13 14:51:38 20.9 16 22.4
003C4329 2019-03-13 14:21:31 20.9 16 21.3
003C4329 2019-03-13 13:51:25 20.8 16 20
003C4329 2019-03-13 13:21:16 20.8 16 18.2
003C4329 2019-03-13 12:51:08 20.9 16 18.5
003C4329 2019-03-13 12:21:01 20.8 16 18.5
003C4329 2019-03-13 11:50:53 20.8 16 18.7
003C4329 2019-03-13 11:20:16 20.7 16 18.9
003C4329 2019-03-13 10:50:09 20.7 16 19.1
003C4329 2019-03-13 10:20:02 20.6 16 19.2
003C4329 2019-03-13 09:49:56 20.5 16 19.3
003C4329 2019-03-13 09:19:48 20.4 16 19.2
003C4329 2019-03-13 08:49:40 20.4 15 19.2
003C4329 2019-03-13 08:19:33 20.4 15 19.2
003C4329 2019-03-13 07:49:26 20.4 16 19.2
003C4329 2019-03-13 07:19:18 20.4 16 19.2
003C4329 2019-03-13 06:49:10 20.4 16 19.1
003C4329 2019-03-13 06:19:02 20.4 16 19
003C4329 2019-03-13 05:48:53 20.5 16 19.4
003C4329 2019-03-13 05:18:45 20.5 16 19.4
003C4329 2019-03-13 04:48:37 20.5 16 19.1
003C4329 2019-03-13 04:18:29 20.5 16 19.3
003C4329 2019-03-13 03:48:20 20.5 16 19.1
003C4329 2019-03-13 03:18:12 20.5 16 19.2
003C4329 2019-03-13 02:48:04 20.5 16 19.3
003C4329 2019-03-13 02:17:56 20.5 16 19.2
003C4329 2019-03-13 01:47:49 20.5 16 20.8
003C4329 2019-03-13 01:17:41 20.5 16 20.7
003C4329 2019-03-13 00:47:32 20.5 16 20.6
003C4329 2019-03-13 00:17:24 20.5 16 20.6
003C4329 2019-03-12 23:47:16 20.6 16 20.6
003C4329 2019-03-12 23:17:07 20.6 16 20.6
003C4329 2019-03-12 22:46:59 20.6 16 20.6
003C4329 2019-03-12 22:16:51 20.6 16 20.4
003C4329 2019-03-12 21:46:43 20.7 16 20.4
003C4329 2019-03-12 21:16:35 20.7 16 21.6
003C4329 2019-03-12 20:46:27 20.7 16 22.6
003C4329 2019-03-12 20:16:19 20.7 16 23.5
003C4329 2019-03-12 19:46:11 20.7 16 24.2
003C4329 2019-03-12 19:16:04 20.8 16 24.7
003C4329 2019-03-12 18:45:57 20.8 16 25.2
003C4329 2019-03-12 18:15:50 20.8 16 25.7
003C4329 2019-03-12 17:45:43 20.8 16 26.1
003C4329 2019-03-12 17:15:34 20.8 16 26.4
003C4329 2019-03-12 16:45:27 20.8 16 26.8
003C4329 2019-03-12 16:15:18 20.8 16 27.1
003C4329 2019-03-12 15:45:11 20.7 16 27.4
003C4329 2019-03-12 15:15:04 20.7 16 27.7
003C4329 2019-03-12 14:44:57 20.7 16 28
003C4329 2019-03-12 14:14:49 20.7 16 28.2
003C4329 2019-03-12 13:44:42 20.7 16 28.4
003C4329 2019-03-12 13:14:35 20.7 16 28.4
003C4329 2019-03-12 12:44:27 20.7 16 28.7
003C4329 2019-03-12 12:14:20 20.6 16 28.9
003C4329 2019-03-12 11:14:04 20.5 16 29.1
003C4329 2019-03-12 10:43:56 20.5 16 29.3
003C4329 2019-03-12 10:13:16 20.5 16 29.6
003C4329 2019-03-12 09:43:08 20.4 16 29.8
003C4329 2019-03-12 09:13:00 20.4 16 30
003C4329 2019-03-12 08:42:52 20.4 16 30
003C4329 2019-03-12 08:12:44 20.4 16 30
003C4329 2019-03-12 07:42:37 20.4 16 30
003C4329 2019-03-12 07:12:30 20.4 16 30
003C4329 2019-03-12 06:42:23 20.4 16 30
003C4329 2019-03-12 06:12:15 20.5 16 30
003C4329 2019-03-12 05:42:08 20.5 16 30
003C4329 2019-03-12 05:11:59 20.5 16 30
003C4329 2019-03-12 04:41:52 20.5 17 30
003C4329 2019-03-12 04:11:46 20.5 17 30
003C4329 2019-03-12 03:41:39 20.5 17 29.8
003C4329 2019-03-12 03:11:32 20.5 17 29.7
003C4329 2019-03-12 02:41:25 20.5 17 29.3
003C4329 2019-03-12 02:11:17 20.5 17 29.1
003C4329 2019-03-12 01:41:10 20.5 17 28.8
003C4329 2019-03-12 01:11:04 20.5 17 28.6
003C4329 2019-03-12 00:40:57 20.5 17 28.4
003C4329 2019-03-12 00:10:48 20.5 17 28.1
003C4329 2019-03-11 23:40:41 20.6 17 27.9
003C4329 2019-03-11 23:10:33 20.6 17 27.6
003C4329 2019-03-11 22:40:25 20.6 17 27.6
003C4329 2019-03-11 22:10:16 20.7 17 27.3
003C4329 2019-03-11 21:40:09 20.7 17 26.9
003C4329 2019-03-11 21:10:01 20.7 17 26.6
003C4329 2019-03-11 20:39:53 20.7 17 26.2
003C4329 2019-03-11 20:09:46 20.7 17 25.8
003C4329 2019-03-11 19:39:38 20.8 17 25.3
003C4329 2019-03-11 19:09:30 20.8 17 24.8
003C4329 2019-03-11 18:39:22 20.8 17 24.2
003C4329 2019-03-11 18:09:16 20.8 17 23.5
003C4329 2019-03-11 17:39:06 20.8 17 22.7
003C4329 2019-03-11 17:09:01 20.8 17 21.7
003C4329 2019-03-11 16:38:53 20.8 17 20.5
003C4329 2019-03-11 16:08:46 20.7 17 19
003C4329 2019-03-11 15:38:39 20.7 17 19.1
003C4329 2019-03-11 15:08:33 20.7 17 19
003C4329 2019-03-11 14:38:26 20.6 17 19.1
003C4329 2019-03-11 14:08:19 20.6 17 19.3
003C4329 2019-03-11 13:38:11 20.6 17 19.4
003C4329 2019-03-11 13:08:05 20.6 17 19.7
003C4329 2019-03-11 12:37:57 20.5 17 19.8
003C4329 2019-03-11 12:07:53 20.5 17 19.7
003C4329 2019-03-11 11:37:47 20.5 18 19.8
003C4329 2019-03-11 11:07:36 20.5 18 19.6
003C4329 2019-03-11 10:07:21 20.5 18 19.8
003C4329 2019-03-11 09:37:15 20.4 18 17.8
003C4329 2019-03-11 09:06:36 20.4 18 18
003C4329 2019-03-11 08:36:28 20.4 18 17.6
003C4329 2019-03-11 08:06:20 20.4 18 17.7
003C4329 2019-03-11 07:36:14 20.4 19 18
003C4329 2019-03-11 07:06:08 20.4 19 18
003C4329 2019-03-11 06:36:00 20.4 19 18.4
003C4329 2019-03-11 06:05:53 20.4 19 18.6
003C4329 2019-03-11 05:35:47 20.5 19 18.8
003C4329 2019-03-11 05:05:37 20.5 19 18.9
003C4329 2019-03-11 04:35:29 20.5 19 18.9
003C4329 2019-03-11 04:05:22 20.5 19 18.8
003C4329 2019-03-11 03:35:13 20.5 19 18.4
003C4329 2019-03-11 03:05:06 20.5 19 18.5
003C4329 2019-03-11 02:34:59 20.5 20 18.8
003C4329 2019-03-11 02:04:51 20.5 20 18.8
003C4329 2019-03-11 01:34:44 20.5 20 18.8
003C4329 2019-03-11 01:04:37 20.5 20 19
003C4329 2019-03-11 00:34:29 20.5 20 18.8
003C4329 2019-03-11 00:04:22 20.5 20 18.8
003C4329 2019-03-10 23:34:13 20.5 20 19
003C4329 2019-03-10 23:04:06 20.5 20 19
003C4329 2019-03-10 22:33:57 20.6 20 19
003C4329 2019-03-10 22:03:50 20.6 20 18.8
003C4329 2019-03-10 21:33:40 20.6 20 18.7
003C4329 2019-03-10 21:03:31 20.6 21 18.6
003C4329 2019-03-10 20:33:22 20.6 21 18.5
003C4329 2019-03-10 20:03:14 20.7 21 18.4
003C4329 2019-03-10 19:33:06 20.7 21 18.5
003C4329 2019-03-10 19:02:58 20.7 21 18.3
003C4329 2019-03-10 18:32:49 20.7 21 18.7
003C4329 2019-03-10 18:02:40 20.7 21 18.5
003C4329 2019-03-10 17:32:33 20.7 22 18.2
003C4329 2019-03-10 17:02:25 20.7 22 18.2
003C4329 2019-03-10 16:32:17 20.7 22 18.4
003C4329 2019-03-10 16:02:09 20.7 22 18.4
003C4329 2019-03-10 15:32:01 20.7 22 18.4
003C4329 2019-03-10 15:01:56 20.7 23 18.5
003C4329 2019-03-10 14:31:46 20.6 23 18.6
003C4329 2019-03-10 14:01:39 20.6 24 18.8
003C4329 2019-03-10 13:31:31 20.6 24 18.7
003C4329 2019-03-10 13:01:23 20.6 24 18.6
003C4329 2019-03-10 12:31:14 20.6 24 18.6
003C4329 2019-03-10 12:01:06 20.5 24 18.5
003C4329 2019-03-10 11:30:58 20.5 24 18.5
003C4329 2019-03-10 11:00:49 20.5 24 18.5
003C4329 2019-03-10 10:30:41 20.5 24 18.8
003C4329 2019-03-10 10:00:33 20.6 24 18.9
003C4329 2019-03-10 09:30:25 20.6 24 18.9
003C4329 2019-03-10 09:00:17 20.6 24 18.8
003C4329 2019-03-10 08:30:09 20.6 24 19
003C4329 2019-03-10 07:59:28 20.6 24 19.4
003C4329 2019-03-10 07:29:21 20.6 24 19.7
003C4329 2019-03-10 06:59:13 20.6 24 19.9
003C4329 2019-03-10 06:29:06 20.6 24 19.7
003C4329 2019-03-10 05:58:59 20.6 24 19.6
003C4329 2019-03-10 05:28:53 20.6 24 19.6
003C4329 2019-03-10 04:58:44 20.6 24 19.6
003C4329 2019-03-10 04:28:39 20.6 24 19.2
003C4329 2019-03-10 03:58:29 20.6 24 19.2
003C4329 2019-03-10 03:28:20 20.6 24 19.2
003C4329 2019-03-10 02:58:12 20.6 24 19.1
003C4329 2019-03-10 02:28:04 20.6 24 18.8
003C4329 2019-03-10 01:57:56 20.7 24 18.5
003C4329 2019-03-10 01:27:49 20.6 24 18.4
003C4329 2019-03-10 00:57:40 20.7 24 18.3
003C4329 2019-03-10 00:27:32 20.7 24 18
003C4329 2019-03-09 23:57:26 20.7 24 17.7
003C4329 2019-03-09 23:27:16 20.7 24 17.7
003C4329 2019-03-09 22:57:07 20.7 24 17.4
003C4329 2019-03-09 22:27:00 20.7 24 17.1
003C4329 2019-03-09 21:56:53 20.7 24 16.8
003C4329 2019-03-09 21:26:46 20.7 23 16.8
003C4329 2019-03-09 20:56:40 20.7 23 16.8
003C4329 2019-03-09 20:26:31 20.7 23 16.6
003C4329 2019-03-09 19:56:24 20.7 23 16.6
003C4329 2019-03-09 19:26:16 20.7 23 16.3
003C4329 2019-03-09 18:56:07 20.8 23 15.3
003C4329 2019-03-09 18:26:00 20.8 23 15
003C4329 2019-03-09 17:55:53 20.8 23 14.5
003C4329 2019-03-09 17:25:46 20.8 24 18.3
003C4329 2019-03-09 16:55:41 20.8 24 18.3
003C4329 2019-03-09 16:25:31 20.8 24 18.3
003C4329 2019-03-09 15:55:27 20.8 24 18.3
003C4329 2019-03-09 15:25:17 20.8 24 19
003C4329 2019-03-09 14:55:09 20.7 24 19.1
003C4329 2019-03-09 14:25:04 20.7 24 19.2
003C4329 2019-03-09 13:54:53 20.7 24 19.4
003C4329 2019-03-09 13:24:45 20.7 24 19.4
003C4329 2019-03-09 12:54:41 20.7 24 19.5
003C4329 2019-03-09 12:24:31 20.7 24 19.5
003C4329 2019-03-09 11:54:25 20.7 24 19.8
003C4329 2019-03-09 11:24:17 20.6 24 19.9
003C4329 2019-03-09 10:54:10 20.7 25 20.1
003C4329 2019-03-09 10:24:02 20.6 25 20.1
003C4329 2019-03-09 09:53:55 20.6 25 20.3
003C4329 2019-03-09 09:23:45 20.6 25 20.4
003C4329 2019-03-09 08:53:36 20.6 25 20.5
003C4329 2019-03-09 08:23:29 20.6 25 20.5
003C4329 2019-03-09 07:53:20 20.7 25 20.6
003C4329 2019-03-09 07:23:11 20.6 25 20.6
003C4329 2019-03-09 06:52:32 20.7 26 20.7
003C4329 2019-03-09 06:22:24 20.7 26 20.7
003C4329 2019-03-09 05:52:18 20.7 26 20.7
003C4329 2019-03-09 05:22:12 20.7 26 19
003C4329 2019-03-09 04:52:05 20.7 26 19
003C4329 2019-03-09 04:22:00 20.7 26 20.7
003C4329 2019-03-09 03:51:55 20.7 26 20.7
003C4329 2019-03-09 03:21:49 20.8 26 20.3
003C4329 2019-03-09 02:51:44 20.8 26 20.5
003C4329 2019-03-09 02:21:38 20.8 26 20.4
003C4329 2019-03-09 01:51:32 20.8 26 20.4
003C4329 2019-03-09 01:21:27 20.8 26 20.4
003C4329 2019-03-09 00:51:20 20.9 26 20.4
003C4329 2019-03-09 00:21:13 20.8 26 20.5
003C4329 2019-03-08 23:51:07 20.9 26 20.2
003C4329 2019-03-08 23:21:00 20.9 26 20.1
003C4329 2019-03-08 22:50:56 20.9 26 20.1
003C4329 2019-03-08 22:20:50 20.9 26 20.2
003C4329 2019-03-08 21:50:41 21 26 20.1
003C4329 2019-03-08 20:50:27 21 26 20
003C4329 2019-03-08 20:20:21 21 26 20.1
003C4329 2019-03-08 19:50:15 21.1 26 20.4
003C4329 2019-03-08 19:20:09 21.1 26 20.2
003C4329 2019-03-08 18:50:04 21.1 26 20.1
003C4329 2019-03-08 18:19:57 21.1 26 20.1
003C4329 2019-03-08 17:49:47 21.2 26 20.1
003C4329 2019-03-08 17:19:43 21.2 26 20.1
003C4329 2019-03-08 16:49:34 21.2 27 20.2
003C4329 2019-03-08 16:19:30 21.1 27 20.1
003C4329 2019-03-08 15:49:21 21.1 26 20.2
003C4329 2019-03-08 15:19:13 21.1 26 18.4
003C4329 2019-03-08 14:49:08 21 26 18.8
003C4329 2019-03-08 14:19:02 21 26 19.1
003C4329 2019-03-08 13:48:55 21 26 18.9
003C4329 2019-03-08 13:18:48 21 26 19.1
003C4329 2019-03-08 12:48:41 20.9 25 19
003C4329 2019-03-08 12:18:35 20.9 25 19.4
003C4329 2019-03-08 11:48:30 20.9 25 19.4
003C4329 2019-03-08 11:18:24 20.8 25 19.6
003C4329 2019-03-08 10:48:18 20.8 24 19.9
003C4329 2019-03-08 10:18:12 20.8 24 20.4
003C4329 2019-03-08 09:48:06 20.8 24 20.3
003C4329 2019-03-08 09:17:59 20.8 24 20.2
003C4329 2019-03-08 08:47:54 20.8 24 20.3
003C4329 2019-03-08 08:17:48 20.8 23 20.4
003C4329 2019-03-08 07:47:42 20.8 23 20.2
003C4329 2019-03-08 07:17:35 20.8 23 20.1
003C4329 2019-03-08 06:47:30 20.8 23 20.3
003C4329 2019-03-08 06:17:24 20.8 23 20.3
003C4329 2019-03-08 05:46:43 20.8 23 20.6
003C4329 2019-03-08 05:16:37 20.8 23 20.5
003C4329 2019-03-08 04:46:32 20.8 23 20.5
003C4329 2019-03-08 04:16:23 20.8 22 20.5
003C4329 2019-03-08 03:46:16 20.8 22 20.5
003C4329 2019-03-08 03:16:09 20.8 22 20.4
003C4329 2019-03-08 02:46:03 20.8 22 20.1
003C4329 2019-03-08 02:15:57 20.8 22 20
003C4329 2019-03-08 01:45:51 20.8 22 20
003C4329 2019-03-08 01:15:46 20.8 22 20
003C4329 2019-03-08 00:45:40 20.8 22 19.9
003C4329 2019-03-08 00:15:34 20.8 22 19.5
003C4329 2019-03-07 23:45:26 20.8 22 19.4
003C4329 2019-03-07 23:15:19 20.9 22 19.3
003C4329 2019-03-07 22:45:15 20.9 22 19
003C4329 2019-03-07 22:15:10 20.9 22 18.4
003C4329 2019-03-07 21:45:03 20.9 22 18.6
003C4329 2019-03-07 21:14:57 20.9 22 18.5
003C4329 2019-03-07 20:44:50 21 21 18.6
003C4329 2019-03-07 20:14:46 21 21 18.5
003C4329 2019-03-07 19:44:38 21 21 18.3
003C4329 2019-03-07 19:14:32 21.1 21 18
003C4329 2019-03-07 18:44:26 21.1 21 17.9
003C4329 2019-03-07 18:14:19 21.2 21 17.9
003C4329 2019-03-07 17:44:13 21.2 21 17.7
003C4329 2019-03-07 17:14:06 21.3 21 17.5
003C4329 2019-03-07 16:44:00 21.2 21 17.3
003C4329 2019-03-07 16:13:52 21.2 21 17.6
003C4329 2019-03-07 15:43:44 21.2 20 17.7
003C4329 2019-03-07 15:13:38 21.2 20 17.7
003C4329 2019-03-07 14:43:33 21.1 20 17.6
003C4329 2019-03-07 14:13:26 21.1 20 17.6
003C4329 2019-03-07 13:43:20 21 19 17.3
003C4329 2019-03-07 13:13:18 21 19 17.5
003C4329 2019-03-07 12:43:08 21 18 17.2
003C4329 2019-03-07 12:13:01 20.9 18 17.3
003C4329 2019-03-07 11:42:55 20.9 18 17.3
003C4329 2019-03-07 11:12:51 20.9 18 17.5
003C4329 2019-03-07 10:42:41 20.8 17 17.3
003C4329 2019-03-07 10:12:35 20.8 17 17.3
003C4329 2019-03-07 09:42:29 20.7 16 17.6
003C4329 2019-03-07 09:12:22 20.7 16 17.3
003C4329 2019-03-07 08:42:16 20.7 16 17.6
003C4329 2019-03-07 08:12:11 20.8 15 17.3
003C4329 2019-03-07 07:42:03 20.7 15 17.7
003C4329 2019-03-07 07:11:57 20.8 15 17.8
003C4329 2019-03-07 06:41:51 20.7 15 17.7
003C4329 2019-03-07 06:11:44 20.7 14 17.6
003C4329 2019-03-07 05:41:39 20.7 14 17.6
003C4329 2019-03-07 05:11:32 20.8 14 17.6
003C4329 2019-03-07 04:40:52 20.7 14 17.9
003C4329 2019-03-07 04:10:47 20.7 14 17.6
003C4329 2019-03-07 03:40:41 20.7 14 17.5
003C4329 2019-03-07 03:10:35 20.7 13 17.5
003C4329 2019-03-07 02:40:29 20.7 13 17.3
003C4329 2019-03-07 02:10:24 20.7 13 17.4
003C4329 2019-03-07 01:40:19 20.7 13 17.6
003C4329 2019-03-07 01:10:11 20.7 13 17.5
003C4329 2019-03-07 00:40:04 20.7 13 18.1
003C4329 2019-03-07 00:09:56 20.7 13 18.3
003C4329 2019-03-06 23:39:51 20.7 13 18.5
003C4329 2019-03-06 23:09:44 20.7 13 18.4
003C4329 2019-03-06 22:39:37 20.8 12 18.5
003C4329 2019-03-06 22:09:30 20.8 12 18.4
003C4329 2019-03-06 21:39:23 20.8 12 18.4
003C4329 2019-03-06 21:09:17 20.8 12 18.6
003C4329 2019-03-06 20:39:10 20.8 12 18.4
003C4329 2019-03-06 20:09:03 20.8 12 18.7
003C4329 2019-03-06 19:38:56 20.8 12 18.5
003C4329 2019-03-06 19:08:49 20.9 12 18.5
003C4329 2019-03-06 18:38:42 20.9 12 18.5
003C4329 2019-03-06 18:08:36 20.9 12 18.6
003C4329 2019-03-06 17:38:29 21 12 18.5
003C4329 2019-03-06 17:08:23 21 12 18.8
003C4329 2019-03-06 16:38:17 21 12 19.3
003C4329 2019-03-06 16:08:10 21 12 19.2
003C4329 2019-03-06 15:38:04 21 12 19.5
003C4329 2019-03-06 15:08:02 20.9 12 19.9
003C4329 2019-03-06 14:37:51 20.8 12 20.2
003C4329 2019-03-06 14:07:44 20.8 12 20.3
003C4329 2019-03-06 13:37:38 20.7 12 20.4
003C4329 2019-03-06 13:07:30 20.7 12 20.6
003C4329 2019-03-06 12:37:23 20.7 12 20.5
003C4329 2019-03-06 12:07:17 20.6 12 20.3
003C4329 2019-03-06 11:37:10 20.7 12 20.4
003C4329 2019-03-06 11:07:04 20.6 12 20.4
003C4329 2019-03-06 10:36:58 20.6 12 20.7
003C4329 2019-03-06 10:06:53 20.5 12 20.7
003C4329 2019-03-06 09:36:46 20.5 12 20.7
003C4329 2019-03-06 09:06:40 20.4 12 20.8
003C4329 2019-03-06 08:36:33 20.5 12 21.1
003C4329 2019-03-06 08:06:27 20.5 12 20.9
003C4329 2019-03-06 07:36:21 20.5 13 20.9
003C4329 2019-03-06 07:06:15 20.5 13 21.2
003C4329 2019-03-06 06:36:07 20.6 13 21.3
003C4329 2019-03-06 06:06:02 20.5 13 22.3
003C4329 2019-03-06 05:35:55 20.6 13 22.5
003C4329 2019-03-06 05:05:48 20.6 13 22.5
003C4329 2019-03-06 04:35:41 20.6 13 22.2
003C4329 2019-03-06 04:05:35 20.8 13 22.3
003C4329 2019-03-06 04:04:25 20.6 13 22.5
003C4329 2019-03-06 03:34:19 20.6 13 22.6
003C4329 2019-03-06 03:04:12 20.7 13 22.6
003C4329 2019-03-06 02:34:06 20.7 13 22.5
003C4329 2019-03-06 02:04:00 20.7 13 22.5
003C4329 2019-03-06 01:33:53 20.7 13 22.6
003C4329 2019-03-06 01:03:47 20.7 14 22.5
003C4329 2019-03-06 00:33:41 20.7 14 22.6
003C4329 2019-03-06 00:03:35 20.8 14 22.8
003C4329 2019-03-05 23:33:29 20.8 14 22.8
003C4329 2019-03-05 23:03:22 20.8 14 22.9
003C4329 2019-03-05 22:33:16 20.8 14 22.8
003C4329 2019-03-05 22:03:10 20.9 14 23
003C4329 2019-03-05 21:33:04 20.9 14 23
003C4329 2019-03-05 21:02:57 20.9 14 22.9
003C4329 2019-03-05 20:32:50 20.9 14 22.7
003C4329 2019-03-05 20:02:42 20.9 14 22.7
003C4329 2019-03-05 19:32:35 20.9 14 22.7
003C4329 2019-03-05 19:02:26 21 14 22.5
003C4329 2019-03-05 18:32:19 21 15 22.6
003C4329 2019-03-05 18:02:11 21 15 21.6
003C4329 2019-03-05 17:32:04 21 15 21.5
003C4329 2019-03-05 17:01:56 21 15 21.3
003C4329 2019-03-05 16:31:49 21 16 21.4
003C4329 2019-03-05 16:01:44 20.9 16 21.2
003C4329 2019-03-05 15:31:33 20.8 16 20.7
003C4329 2019-03-05 15:01:27 20.7 17 20.4
003C4329 2019-03-05 14:31:20 20.7 17 20.2
003C4329 2019-03-05 14:01:13 20.7 17 20.3
003C4329 2019-03-05 13:31:05 20.6 17 20.1
003C4329 2019-03-05 13:00:59 20.6 17 19.8
003C4329 2019-03-05 12:30:52 20.6 17 19.8
003C4329 2019-03-05 12:00:41 20.6 18 19.6
003C4329 2019-03-05 11:30:34 20.6 18 19.4
003C4329 2019-03-05 11:00:29 20.6 18 19.3
003C4329 2019-03-05 10:30:23 20.6 18 19.2
003C4329 2019-03-05 10:00:12 20.5 18 19.1
003C4329 2019-03-05 09:30:05 20.5 18 19.2
003C4329 2019-03-05 08:59:58 20.5 18 19.2
003C4329 2019-03-05 08:29:50 20.5 19 19.1
003C4329 2019-03-05 07:59:43 20.5 19 19.3
003C4329 2019-03-05 07:29:36 20.5 19 19.3
003C4329 2019-03-05 06:59:29 20.6 19 19.5
003C4329 2019-03-05 06:29:22 20.6 19 19.4
003C4329 2019-03-05 05:59:14 20.6 19 19.4
003C4329 2019-03-05 05:29:07 20.6 19 19.7
003C4329 2019-03-05 04:59:00 20.6 19 19.6
003C4329 2019-03-05 04:28:52 20.6 19 19.6
003C4329 2019-03-05 03:58:46 20.6 19 19.5
003C4329 2019-03-05 03:28:38 20.6 19 19.4
003C4329 2019-03-05 02:57:58 20.6 19 19.6
003C4329 2019-03-05 02:27:52 20.6 19 20
003C4329 2019-03-05 01:57:43 20.6 19 19.8
003C4329 2019-03-05 01:27:37 20.6 19 20.1
003C4329 2019-03-05 00:57:31 20.6 19 20.1
003C4329 2019-03-05 00:27:23 20.6 19 19.9
003C4329 2019-03-04 23:57:17 20.6 18 20
003C4329 2019-03-04 23:27:09 20.6 18 20.3
003C4329 2019-03-04 22:57:02 20.6 18 20.1
003C4329 2019-03-04 22:26:55 20.6 18 19.8
003C4329 2019-03-04 21:56:49 20.6 18 19.8
003C4329 2019-03-04 21:26:44 20.6 18 19.5
003C4329 2019-03-04 20:56:38 20.6 18 19.4
003C4329 2019-03-04 20:26:32 20.6 18 19.4
003C4329 2019-03-04 19:56:24 20.6 18 19.2
003C4329 2019-03-04 19:26:17 20.6 18 19.6
003C4329 2019-03-04 18:56:10 20.6 18 19.5
003C4329 2019-03-04 18:26:03 20.6 18 19.5
003C4329 2019-03-04 17:55:54 20.6 18 19.5
003C4329 2019-03-04 17:25:46 20.6 18 19.4
003C4329 2019-03-04 16:55:38 20.6 18 19.8
003C4329 2019-03-04 16:25:32 20.5 18 19.9
003C4329 2019-03-04 15:55:25 20.5 18 20.2
003C4329 2019-03-04 15:25:17 20.5 18 20.2
003C4329 2019-03-04 14:55:12 20.5 17 20.4
003C4329 2019-03-04 14:25:05 20.4 17 20.4
003C4329 2019-03-04 13:54:56 20.4 17 20.1
003C4329 2019-03-04 13:24:49 20.4 17 20.4
003C4329 2019-03-04 12:54:43 20.4 17 20.1
003C4329 2019-03-04 12:24:33 20.3 17 20
003C4329 2019-03-04 11:54:25 20.3 17 20.3
003C4329 2019-03-04 11:24:17 20.3 17 20.3
003C4329 2019-03-04 10:54:09 20.2 17 20.3
003C4329 2019-03-04 10:24:02 20.2 17 20.6
003C4329 2019-03-04 09:53:54 20.2 17 20.7
003C4329 2019-03-04 09:23:49 20.1 17 20.8
003C4329 2019-03-04 08:53:40 20.1 18 20.8
003C4329 2019-03-04 08:23:33 20.1 18 20.9
003C4329 2019-03-04 07:53:28 20.1 18 20.9
003C4329 2019-03-04 07:23:22 20.1 18 21
003C4329 2019-03-04 06:53:15 20.1 18 20.7
003C4329 2019-03-04 06:23:09 20.1 18 20.9
003C4329 2019-03-04 05:53:01 20.1 18 21.1
003C4329 2019-03-04 05:22:54 20.1 18 21
003C4329 2019-03-04 04:52:51 20.2 18 20.8
003C4329 2019-03-04 04:22:43 20.1 18 20.7
003C4329 2019-03-04 03:52:35 20.1 18 20.7
003C4329 2019-03-04 03:22:29 20.2 18 20.7
003C4329 2019-03-04 02:52:23 20.2 18 20.8
003C4329 2019-03-04 02:22:16 20.2 18 20.9
003C4329 2019-03-04 01:51:37 20.1 18 20.9
003C4329 2019-03-04 01:21:32 20.1 18 20.8
003C4329 2019-03-04 00:51:25 20.2 18 21.1
003C4329 2019-03-04 00:21:18 20.1 18 21.1
003C4329 2019-03-03 23:51:11 20.2 18 22.1
003C4329 2019-03-03 23:21:05 20.2 18 22.2
003C4329 2019-03-03 22:50:58 20.2 18 22.2
003C4329 2019-03-03 22:20:51 20.2 18 22
003C4329 2019-03-03 21:50:45 20.2 18 22.1
003C4329 2019-03-03 21:20:38 20.2 18 22
003C4329 2019-03-03 20:50:31 20.2 18 22
003C4329 2019-03-03 20:20:25 20.2 18 22.1
003C4329 2019-03-03 19:50:17 20.2 18 22.4
003C4329 2019-03-03 19:20:10 20.2 18 22.3
003C4329 2019-03-03 18:50:03 20.3 18 22.3
003C4329 2019-03-03 18:19:56 20.3 18 22.3
003C4329 2019-03-03 17:49:50 20.3 18 22.3
003C4329 2019-03-03 17:19:44 20.3 18 22.4
003C4329 2019-03-03 16:49:38 20.3 18 22.6
003C4329 2019-03-03 16:19:31 20.3 18 22.5
003C4329 2019-03-03 15:49:26 20.3 18 22.7
003C4329 2019-03-03 15:19:19 20.3 18 22.6
003C4329 2019-03-03 14:49:11 20.3 18 22.5
003C4329 2019-03-03 14:19:05 20.3 18 22.6
003C4329 2019-03-03 13:48:57 20.3 18 22.8
003C4329 2019-03-03 13:18:51 20.3 18 22.7
003C4329 2019-03-03 12:48:43 20.2 18 22.6
003C4329 2019-03-03 12:18:36 20.2 18 22.6
003C4329 2019-03-03 11:48:29 20.3 18 22.7
003C4329 2019-03-03 11:18:22 20.3 18 21.9
003C4329 2019-03-03 10:48:16 20.3 18 21.8
003C4329 2019-03-03 10:18:10 20.3 18 21.7
003C4329 2019-03-03 09:48:01 20.3 18 21.7
003C4329 2019-03-03 09:17:54 20.3 18 21.5
003C4329 2019-03-03 08:47:46 20.3 18 21.7
003C4329 2019-03-03 08:17:38 20.3 18 21.9
003C4329 2019-03-03 07:47:32 20.3 18 21.7
003C4329 2019-03-03 07:17:26 20.3 18 21.6
003C4329 2019-03-03 06:47:20 20.3 18 21.6
003C4329 2019-03-03 06:17:13 20.3 18 21.6
003C4329 2019-03-03 05:47:06 20.3 18 21.5
003C4329 2019-03-03 05:17:00 20.4 18 21.2
003C4329 2019-03-03 04:46:54 20.4 18 21.1
003C4329 2019-03-03 04:16:47 20.4 18 20.9
003C4329 2019-03-03 03:46:40 20.4 18 20.9
003C4329 2019-03-03 03:16:34 20.4 18 20.9
003C4329 2019-03-03 02:46:28 20.4 18 20.9
003C4329 2019-03-03 02:16:22 20.4 18 21
003C4329 2019-03-03 01:46:19 20.4 18 20.6
003C4329 2019-03-03 01:16:11 20.4 18 20.3
003C4329 2019-03-03 00:45:33 20.5 18 20.4
003C4329 2019-03-03 00:15:26 20.4 18 20.2
003C4329 2019-03-02 23:45:20 20.4 18 20.1
003C4329 2019-03-02 23:15:12 20.4 18 20.1
003C4329 2019-03-02 22:45:06 20.5 18 20.1
003C4329 2019-03-02 22:14:59 20.5 18 20.2
003C4329 2019-03-02 21:44:52 20.5 17 20.2
003C4329 2019-03-02 21:14:45 20.5 17 20.4
003C4329 2019-03-02 20:44:39 20.5 17 20.3
003C4329 2019-03-02 20:14:32 20.5 17 20.2
003C4329 2019-03-02 19:44:25 20.5 17 20.4
003C4329 2019-03-02 19:14:18 20.5 17 20.5
003C4329 2019-03-02 18:44:11 20.6 17 20.6
003C4329 2019-03-02 18:14:03 20.6 17 21
003C4329 2019-03-02 17:43:54 20.6 17 21
003C4329 2019-03-02 17:13:48 20.6 17 21.2
003C4329 2019-03-02 16:43:41 20.6 17 21.3
003C4329 2019-03-02 16:13:33 20.6 17 21.4
003C4329 2019-03-02 15:43:25 20.6 17 21.4
003C4329 2019-03-02 15:13:20 20.5 17 21.3
003C4329 2019-03-02 14:43:10 20.5 16 21.4
003C4329 2019-03-02 14:13:03 20.5 16 21.6
003C4329 2019-03-02 13:42:57 20.5 16 21.8
003C4329 2019-03-02 13:12:53 20.5 16 21.9
003C4329 2019-03-02 12:42:45 20.4 16 22.1
003C4329 2019-03-02 12:12:39 20.4 16 23
003C4329 2019-03-02 11:42:33 20.5 16 23.1
003C4329 2019-03-02 11:12:26 20.5 16 23
003C4329 2019-03-02 10:42:18 20.4 16 22.9
003C4329 2019-03-02 10:12:11 20.4 16 23
003C4329 2019-03-02 09:42:03 20.5 16 23
003C4329 2019-03-02 09:11:56 20.5 15 23
003C4329 2019-03-02 08:41:49 20.5 15 22.9
003C4329 2019-03-02 08:11:42 20.5 15 22.9
003C4329 2019-03-02 07:41:34 20.5 15 22.9
003C4329 2019-03-02 07:11:28 20.5 15 23
003C4329 2019-03-02 06:41:21 20.5 15 22.8
003C4329 2019-03-02 06:11:14 20.5 15 22.9
003C4329 2019-03-02 05:41:06 20.5 15 22.7
003C4329 2019-03-02 05:11:00 20.5 15 22.8
003C4329 2019-03-02 04:40:53 20.6 15 22.6
003C4329 2019-03-02 04:10:47 20.6 15 22.6
003C4329 2019-03-02 03:40:40 20.6 15 22.5
003C4329 2019-03-02 03:10:33 20.6 15 22.7
003C4329 2019-03-02 02:40:25 20.7 14 22.6
003C4329 2019-03-02 02:10:19 20.7 14 22.5
003C4329 2019-03-02 01:40:12 20.8 14 22.3
003C4329 2019-03-02 01:10:05 20.7 14 22
003C4329 2019-03-02 00:39:57 20.8 14 21.9
003C4329 2019-03-02 00:09:50 20.8 14 21.7
003C4329 2019-03-01 23:39:12 20.9 14 20.3
003C4329 2019-03-01 23:09:05 20.9 14 20.5
003C4329 2019-03-01 22:38:58 21 14 20.2
003C4329 2019-03-01 22:08:51 21 14 20.2
003C4329 2019-03-01 21:38:43 21 14 20.1
003C4329 2019-03-01 21:08:36 21 14 20.1
003C4329 2019-03-01 20:38:30 21 14 20.1
003C4329 2019-03-01 20:08:22 21.1 14 19.9
003C4329 2019-03-01 19:38:14 21 14 19.6
003C4329 2019-03-01 19:08:07 21.1 14 19.2
003C4329 2019-03-01 18:38:01 21.1 14 19.1
003C4329 2019-03-01 18:07:53 21.2 14 18.6
003C4329 2019-03-01 17:37:45 21.3 15 18.4
003C4329 2019-03-01 17:07:37 21.3 15 18
003C4329 2019-03-01 16:37:30 21.3 15 18
003C4329 2019-03-01 16:07:22 21.2 15 17.5
003C4329 2019-03-01 15:37:15 21.1 15 17.5
003C4329 2019-03-01 15:07:08 21 16 17
003C4329 2019-03-01 14:37:02 20.9 16 16.9
003C4329 2019-03-01 14:06:56 20.9 16 16.5
003C4329 2019-03-01 13:36:49 20.9 16 16.6
003C4329 2019-03-01 13:06:42 20.9 17 16.7
003C4329 2019-03-01 12:36:34 20.9 17 16.8
003C4329 2019-03-01 12:06:27 20.9 17 16.9
003C4329 2019-03-01 11:36:20 20.9 17 16.9
003C4329 2019-03-01 11:06:12 20.8 18 16.8
003C4329 2019-03-01 10:36:07 20.7 18 16.5
003C4329 2019-03-01 10:06:02 20.7 18 16.4
003C4329 2019-03-01 09:35:51 20.6 18 15.7
003C4329 2019-03-01 09:05:43 20.6 18 15.4
003C4329 2019-03-01 08:35:36 20.6 18 15
003C4329 2019-03-01 08:05:28 20.6 19 14.9
003C4329 2019-03-01 07:35:22 20.6 19 15.2
003C4329 2019-03-01 07:05:15 20.6 19 15.1
003C4329 2019-03-01 06:35:08 20.7 19 15
003C4329 2019-03-01 06:05:02 20.7 20 18.5
003C4329 2019-03-01 05:34:56 20.7 20 18.6
003C4329 2019-03-01 05:04:48 20.7 20 18.7
003C4329 2019-03-01 04:34:41 20.7 20 19
003C4329 2019-03-01 04:04:36 20.7 20 19.2
003C4329 2019-03-01 03:34:28 20.7 21 19.4
003C4329 2019-03-01 03:04:21 20.7 21 19.5
003C4329 2019-03-01 02:34:14 20.7 21 19.6
003C4329 2019-03-01 02:04:07 20.7 21 19.7
003C4329 2019-03-01 01:34:00 20.8 22 19.7
003C4329 2019-03-01 01:03:53 20.8 22 19.8
003C4329 2019-03-01 00:33:47 20.8 22 19.8
003C4329 2019-03-01 00:03:39 20.8 22 19.8
003C4329 2019-02-28 23:33:31 20.8 23 19.9
003C4329 2019-02-28 23:03:23 20.9 23 19.9
003C4329 2019-02-28 22:32:43 20.9 23 20.3
003C4329 2019-02-28 22:02:35 21 23 20.4
003C4329 2019-02-28 21:32:27 21 23 20.6
003C4329 2019-02-28 21:02:19 21 24 20.7
003C4329 2019-02-28 20:32:12 21 24 20.7
003C4329 2019-02-28 20:02:05 21.1 24 20.8
003C4329 2019-02-28 19:31:58 21.1 24 21
003C4329 2019-02-28 19:01:50 21.1 24 19.4
003C4329 2019-02-28 18:31:44 21.2 25 21
003C4329 2019-02-28 18:01:36 21.3 25 21.2
003C4329 2019-02-28 17:31:28 21.4 25 21.4
003C4329 2019-02-28 17:01:24 21.4 26 21.4
003C4329 2019-02-28 16:31:12 21.4 26 21.3
003C4329 2019-02-28 16:01:04 21.4 26 21.4
003C4329 2019-02-28 15:30:58 21.3 25 21.2
003C4329 2019-02-28 15:00:51 21.3 25 21.3
003C4329 2019-02-28 14:30:44 21.3 25 21.3
003C4329 2019-02-28 14:00:38 21.3 25 21.5
003C4329 2019-02-28 13:30:29 21.2 25 21.5
003C4329 2019-02-28 13:00:22 21.2 25 21.6
003C4329 2019-02-28 12:30:14 21.2 24 21.7
003C4329 2019-02-28 12:00:07 21.1 24 21.9
003C4329 2019-02-28 11:29:59 21 24 21.9
003C4329 2019-02-28 10:59:52 21 24 22.1
003C4329 2019-02-28 10:29:45 20.9 23 22.2
003C4329 2019-02-28 09:59:37 20.8 23 22
003C4329 2019-02-28 09:29:31 20.8 23 22.1
003C4329 2019-02-28 08:59:23 20.8 22 21.9
003C4329 2019-02-28 08:29:16 20.8 22 21.9
003C4329 2019-02-28 07:59:09 20.8 22 21.9
003C4329 2019-02-28 07:29:01 20.8 22 21.8
003C4329 2019-02-28 06:58:55 20.8 22 21.8
003C4329 2019-02-28 06:28:47 20.8 22 21.9
003C4329 2019-02-28 05:58:39 20.8 22 20.8
003C4329 2019-02-28 05:28:30 20.9 22 20.8
003C4329 2019-02-28 04:58:23 20.9 22 20.6
003C4329 2019-02-28 04:28:13 20.9 22 20.8
003C4329 2019-02-28 03:58:06 20.9 22 20.8
003C4329 2019-02-28 03:27:58 20.8 22 20.6
003C4329 2019-02-28 02:57:50 20.9 22 20.7
003C4329 2019-02-28 02:27:43 20.9 22 20.6
003C4329 2019-02-28 01:57:35 20.9 22 20.5
003C4329 2019-02-28 01:27:28 20.9 22 20.2
003C4329 2019-02-28 00:57:21 21 23 20.3
003C4329 2019-02-28 00:27:14 21 23 20.2
003C4329 2019-02-27 23:57:08 21 23 20
003C4329 2019-02-27 23:27:01 21 23 19.8
003C4329 2019-02-27 22:56:54 21.1 23 19.6
003C4329 2019-02-27 22:26:46 21.1 23 19.3
003C4329 2019-02-27 21:56:39 21.1 23 19
003C4329 2019-02-27 21:25:58 21.2 23 18.9
003C4329 2019-02-27 20:55:50 21.2 24 19.2
003C4329 2019-02-27 20:25:42 21.3 24 19.4
003C4329 2019-02-27 19:55:33 21.3 24 19.6
003C4329 2019-02-27 19:25:25 21.4 24 20
003C4329 2019-02-27 18:55:16 21.4 24 20
003C4329 2019-02-27 18:25:08 21.6 24 20.2
003C4329 2019-02-27 17:54:59 21.6 25 20.3
003C4329 2019-02-27 17:24:50 21.7 25 20.4
003C4329 2019-02-27 16:54:42 21.7 26 20.6
003C4329 2019-02-27 16:24:33 21.6 26 20.3
003C4329 2019-02-27 15:54:24 21.6 26 20.5
003C4329 2019-02-27 15:24:16 21.5 26 21.8
003C4329 2019-02-27 14:54:08 21.4 26 21.9
003C4329 2019-02-27 14:24:01 21.3 26 21.8
003C4329 2019-02-27 13:53:53 21.3 25 21.8
003C4329 2019-02-27 13:23:45 21.3 25 21.9
003C4329 2019-02-27 12:53:37 21.2 25 21.9
003C4329 2019-02-27 12:23:28 21.2 25 22.1
003C4329 2019-02-27 11:53:21 21.2 25 22.1
003C4329 2019-02-27 11:23:14 21.1 25 22.2
003C4329 2019-02-27 10:53:06 21.1 25 22.2
003C4329 2019-02-27 10:22:56 21 25 22.2
003C4329 2019-02-27 09:52:48 21 24 22.2
003C4329 2019-02-27 09:22:39 20.9 24 22.2
003C4329 2019-02-27 08:52:32 20.9 24 22.2
003C4329 2019-02-27 08:22:24 20.9 24 22.1
003C4329 2019-02-27 07:52:17 21 24 22.1
003C4329 2019-02-27 07:22:10 21 23 22
003C4329 2019-02-27 06:52:02 21 23 21.8
003C4329 2019-02-27 06:21:55 21 23 21.8
003C4329 2019-02-27 05:51:48 21 23 21.6
003C4329 2019-02-27 05:21:41 21 23 21.5
003C4329 2019-02-27 04:51:34 21 23 21.2
003C4329 2019-02-27 04:21:25 21.1 23 21
003C4329 2019-02-27 03:51:18 21.1 23 21
003C4329 2019-02-27 03:21:10 21.1 23 20.7
003C4329 2019-02-27 02:51:02 21.1 24 19.2
003C4329 2019-02-27 02:20:53 21.1 24 19.1
003C4329 2019-02-27 01:50:45 21.2 24 19.1
003C4329 2019-02-27 01:20:38 21.2 24 19.1
003C4329 2019-02-27 00:50:31 21.2 24 18.9
003C4329 2019-02-27 00:20:23 21.3 24 18.8
003C4329 2019-02-26 23:50:15 21.3 24 18.3
003C4329 2019-02-26 23:20:07 21.4 24 18.6
003C4329 2019-02-26 22:49:59 21.4 24 18.5
003C4329 2019-02-26 22:19:49 21.5 24 18.4
003C4329 2019-02-26 21:49:41 21.5 24 18.5
003C4329 2019-02-26 21:19:32 21.6 24 18.8
003C4329 2019-02-26 20:49:23 21.6 24 20.6
003C4329 2019-02-26 20:18:43 21.7 24 22.7
003C4329 2019-02-26 19:48:35 21.7 24 23.5
003C4329 2019-02-26 19:18:27 21.8 24 24.1
003C4329 2019-02-26 18:48:19 21.8 24 24.7
003C4329 2019-02-26 18:18:11 21.8 24 24.7
003C4329 2019-02-26 17:48:01 21.9 24 25.3
003C4329 2019-02-26 17:17:53 21.9 25 25.3
003C4329 2019-02-26 16:47:44 21.8 25 25.4
003C4329 2019-02-26 16:17:35 21.7 25 25.9
003C4329 2019-02-26 15:47:28 21.7 25 26.3
003C4329 2019-02-26 15:17:20 21.6 25 26.7
003C4329 2019-02-26 14:47:12 21.5 25 27
003C4329 2019-02-26 14:17:04 21.5 25 27.3
003C4329 2019-02-26 13:46:57 21.5 25 27.6
003C4329 2019-02-26 13:16:49 21.4 25 27.9
003C4329 2019-02-26 12:46:41 21.4 25 28.1
003C4329 2019-02-26 12:16:34 21.3 25 28.4
003C4329 2019-02-26 11:46:25 21.3 24 28.6
003C4329 2019-02-26 11:16:17 21.2 24 28.8
003C4329 2019-02-26 10:46:08 21.1 24 29
003C4329 2019-02-26 10:16:02 21 24 29.2
003C4329 2019-02-26 09:45:55 21 24 29.4
003C4329 2019-02-26 09:15:46 21 23 29.6
003C4329 2019-02-26 08:45:38 20.9 23 29.6
003C4329 2019-02-26 08:15:30 20.9 23 29.6
003C4329 2019-02-26 07:45:21 20.9 23 29.6
003C4329 2019-02-26 07:15:13 21 23 29.6
003C4329 2019-02-26 06:45:06 21 22 29.6
003C4329 2019-02-26 06:14:58 21 22 29.6
003C4329 2019-02-26 05:44:51 21 22 29.7
003C4329 2019-02-26 05:14:44 21 22 29.5
003C4329 2019-02-26 04:44:36 21 22 29.7
003C4329 2019-02-26 04:14:28 21 22 29.8
003C4329 2019-02-26 03:44:21 21.1 22 29.8
003C4329 2019-02-26 03:14:15 21 22 29.7
003C4329 2019-02-26 02:44:10 21 22 29.5
003C4329 2019-02-26 02:14:02 21.1 22 29.5
003C4329 2019-02-26 01:43:54 21.1 22 29.3
003C4329 2019-02-26 01:13:48 21.1 22 29.1
003C4329 2019-02-26 00:43:41 21.1 22 28.9
003C4329 2019-02-26 00:13:34 21.2 21 28.7
003C4329 2019-02-25 23:43:26 21.2 22 28.5
003C4329 2019-02-25 23:13:18 21.2 22 28.3
003C4329 2019-02-25 22:43:12 21.3 21 28
003C4329 2019-02-25 22:13:04 21.3 21 27.8
003C4329 2019-02-25 21:42:57 21.4 21 27.5
003C4329 2019-02-25 21:12:51 21.4 21 27.1
003C4329 2019-02-25 20:42:43 21.5 21 26.8
003C4329 2019-02-25 20:12:36 21.5 22 26.5
003C4329 2019-02-25 19:42:29 21.6 22 26.1
003C4329 2019-02-25 19:11:50 21.6 22 25.2
003C4329 2019-02-25 18:41:42 21.6 22 24.7
003C4329 2019-02-25 18:11:35 21.6 22 24.1
003C4329 2019-02-25 17:41:27 21.6 22 23.5
003C4329 2019-02-25 17:11:19 21.6 22 23.5
003C4329 2019-02-25 16:41:12 21.6 22 22.9
003C4329 2019-02-25 16:11:03 21.6 22 21.9
003C4329 2019-02-25 15:40:57 21.6 23 20.6
003C4329 2019-02-25 15:10:50 21.5 23 20.5
003C4329 2019-02-25 14:40:43 21.4 23 20.4
003C4329 2019-02-25 14:10:36 21.3 23 18.4
003C4329 2019-02-25 13:40:29 21.3 23 18.1
003C4329 2019-02-25 13:10:27 21.2 23 18
003C4329 2019-02-25 12:40:16 21.1 23 18.1
003C4329 2019-02-25 12:10:08 21.1 23 18.2
003C4329 2019-02-25 11:40:01 21 23 18.3
003C4329 2019-02-25 11:09:54 20.9 23 18.2
003C4329 2019-02-25 10:39:46 20.8 23 18.3
003C4329 2019-02-25 10:09:39 20.7 23 18.5
003C4329 2019-02-25 09:39:32 20.7 22 18.5
003C4329 2019-02-25 09:09:25 20.7 22 18.7
003C4329 2019-02-25 08:39:18 20.7 22 18.8
003C4329 2019-02-25 08:09:10 20.7 22 19
003C4329 2019-02-25 07:39:04 20.7 22 18.9
003C4329 2019-02-25 07:08:58 20.7 22 19.2
003C4329 2019-02-25 06:38:53 20.7 22 19.3
003C4329 2019-02-25 06:08:44 20.7 22 19.2
003C4329 2019-02-25 05:38:36 20.7 22 19.1
003C4329 2019-02-25 05:08:29 20.7 22 19
003C4329 2019-02-25 04:38:23 20.7 23 19.1
003C4329 2019-02-25 04:08:16 20.7 23 18.5
003C4329 2019-02-25 03:38:09 20.7 23 18.5
003C4329 2019-02-25 03:08:02 20.7 23 18.5
003C4329 2019-02-25 02:37:56 20.7 23 18.8
003C4329 2019-02-25 02:07:47 20.7 23 19
003C4329 2019-02-25 01:37:41 20.7 23 19
003C4329 2019-02-25 01:07:35 20.7 23 19.1
003C4329 2019-02-25 00:37:26 20.7 23 19.1
003C4329 2019-02-25 00:07:18 20.8 23 20.7
003C4329 2019-02-24 23:37:12 20.8 23 20.9
003C4329 2019-02-24 23:07:06 20.8 24 20.8
003C4329 2019-02-24 22:36:59 20.8 24 20.6
003C4329 2019-02-24 22:06:52 20.8 24 20.6
003C4329 2019-02-24 21:36:44 20.8 24 20.6
003C4329 2019-02-24 21:06:38 20.8 23 20.5
003C4329 2019-02-24 20:36:30 20.8 23 20.4
003C4329 2019-02-24 20:06:23 20.8 23 20.4
003C4329 2019-02-24 19:36:16 20.8 23 20.4
003C4329 2019-02-24 19:06:07 20.9 23 20.4
003C4329 2019-02-24 18:35:59 20.9 23 20.2
003C4329 2019-02-24 18:05:19 20.8 23 20.1
003C4329 2019-02-24 17:35:11 20.9 23 20.2
003C4329 2019-02-24 17:05:05 20.8 23 20
003C4329 2019-02-24 16:34:56 20.8 23 20.1
003C4329 2019-02-24 16:04:48 20.8 23 20.2
003C4329 2019-02-24 15:34:40 20.8 22 20.4
003C4329 2019-02-24 15:04:33 20.8 22 20.3
003C4329 2019-02-24 14:34:26 20.8 22 20.1
003C4329 2019-02-24 14:04:18 20.8 22 20.2
003C4329 2019-02-24 13:34:12 20.8 22 20.4
003C4329 2019-02-24 13:04:03 20.8 22 20.5
003C4329 2019-02-24 12:33:56 20.8 22 18.5
003C4329 2019-02-24 12:03:48 20.8 22 18.1
003C4329 2019-02-24 11:33:41 20.8 22 18.3
003C4329 2019-02-24 11:03:35 20.8 22 18.5
003C4329 2019-02-24 10:33:29 20.8 22 18.5
003C4329 2019-02-24 10:03:24 20.8 22 18.6
003C4329 2019-02-24 09:33:17 20.8 22 19
003C4329 2019-02-24 09:03:12 20.8 21 19.1
003C4329 2019-02-24 08:33:05 20.8 21 19.1
003C4329 2019-02-24 08:02:56 20.8 21 19.1
003C4329 2019-02-24 07:32:49 20.9 21 19.1
003C4329 2019-02-24 07:02:41 20.9 21 18.8
003C4329 2019-02-24 06:32:33 20.9 21 19.2
003C4329 2019-02-24 06:02:27 20.9 21 19.4
003C4329 2019-02-24 05:32:24 20.9 21 19.4
003C4329 2019-02-24 05:02:14 20.9 21 19.4
003C4329 2019-02-24 04:32:06 20.9 21 19.5
003C4329 2019-02-24 04:01:59 20.9 21 19.3
003C4329 2019-02-24 03:31:51 21 21 19.5
003C4329 2019-02-24 03:01:45 21 21 19.2
003C4329 2019-02-24 02:31:37 21 21 19.5
003C4329 2019-02-24 02:01:29 21 21 19.9
003C4329 2019-02-24 01:31:24 21 20 20
003C4329 2019-02-24 01:01:14 21 20 19.8
003C4329 2019-02-24 00:31:07 21.1 20 19.7
003C4329 2019-02-24 00:01:01 21.1 20 19.8
003C4329 2019-02-23 23:30:53 21.1 20 19.9
003C4329 2019-02-23 23:00:45 21.1 20 20
003C4329 2019-02-23 22:30:40 21.1 20 19.8
003C4329 2019-02-23 22:00:31 21.1 19 19.9
003C4329 2019-02-23 21:30:21 21.2 19 19.9
003C4329 2019-02-23 21:00:14 21.2 19 21.1
003C4329 2019-02-23 20:30:07 21.2 19 21.1
003C4329 2019-02-23 20:00:01 21.3 19 21
003C4329 2019-02-23 19:29:52 21.3 18 20.8
003C4329 2019-02-23 18:59:43 21.3 18 20.8
003C4329 2019-02-23 18:29:36 21.3 18 20.9
003C4329 2019-02-23 17:59:29 21.3 18 20.6
003C4329 2019-02-23 17:29:19 21.3 17 20.8
003C4329 2019-02-23 16:58:38 21.3 17 20.9
003C4329 2019-02-23 16:28:31 21.2 17 21
003C4329 2019-02-23 15:58:23 21.2 17 21
003C4329 2019-02-23 15:28:15 21.1 17 21.1
003C4329 2019-02-23 14:58:07 21 16 21.1
003C4329 2019-02-23 14:27:59 20.9 16 20.9
003C4329 2019-02-23 13:57:51 20.9 16 20.8
003C4329 2019-02-23 13:27:45 20.9 16 20.7
003C4329 2019-02-23 12:57:36 20.9 16 20.9
003C4329 2019-02-23 12:27:32 20.9 15 20.9
003C4329 2019-02-23 11:57:25 20.9 15 21
003C4329 2019-02-23 11:27:16 20.9 15 21
003C4329 2019-02-23 10:57:09 20.9 15 21
003C4329 2019-02-23 10:27:04 20.9 15 21
003C4329 2019-02-23 09:56:56 20.9 15 21
003C4329 2019-02-23 09:26:48 20.9 14 21
003C4329 2019-02-23 08:56:41 20.9 14 19.4
003C4329 2019-02-23 08:26:35 20.9 14 19.6
003C4329 2019-02-23 07:56:27 20.9 14 19.7
003C4329 2019-02-23 07:26:21 20.9 14 19.7
003C4329 2019-02-23 06:56:14 20.9 14 19.7
003C4329 2019-02-23 06:26:06 20.9 13 19.8
003C4329 2019-02-23 05:55:59 20.9 13 20.1
003C4329 2019-02-23 05:25:52 20.9 13 19.8
003C4329 2019-02-23 04:55:46 20.9 13 19.8
003C4329 2019-02-23 04:25:39 20.9 13 19.8
003C4329 2019-02-23 03:55:32 20.9 13 19.4
003C4329 2019-02-23 03:25:25 20.9 12 19.8
003C4329 2019-02-23 02:55:18 20.9 12 19.6
003C4329 2019-02-23 02:25:12 20.9 12 19.4
003C4329 2019-02-23 01:55:04 20.9 12 19.5
003C4329 2019-02-23 01:24:56 20.9 12 19.2
003C4329 2019-02-23 00:54:50 21 12 19.5
003C4329 2019-02-23 00:24:44 21 12 19.2
003C4329 2019-02-22 23:54:34 21 12 19
003C4329 2019-02-22 23:24:27 21 12 19.3
003C4329 2019-02-22 22:54:23 21 12 19.1
003C4329 2019-02-22 22:24:14 21.1 12 19
003C4329 2019-02-22 21:54:08 21.1 11 19.2
003C4329 2019-02-22 21:24:01 21.1 11 19.1
003C4329 2019-02-22 20:53:55 21.1 11 19.2
003C4329 2019-02-22 20:23:47 21.2 11 19.1
003C4329 2019-02-22 19:53:40 21.2 11 19.3
003C4329 2019-02-22 19:23:33 21.2 11 19.4
003C4329 2019-02-22 18:53:25 21.2 11 19.7
003C4329 2019-02-22 18:23:21 21.3 12 19.7
003C4329 2019-02-22 17:53:12 21.3 12 19.6
003C4329 2019-02-22 17:23:08 21.3 12 19.3
003C4329 2019-02-22 16:52:59 21.2 12 19.1
003C4329 2019-02-22 16:22:51 21.2 12 19.5
003C4329 2019-02-22 15:52:10 21.1 12 19.3
003C4329 2019-02-22 15:42:02 21.1 12 19.4
003C4329 2019-02-22 15:31:54 21.1 12 19.4
003C4329 2019-02-22 15:21:45 21.1 12 20
003C4329 2019-02-22 15:11:40 21 12 19.9
003C4329 2019-02-22 15:01:32 21 12 19.9
003C4329 2019-02-22 14:51:21 21 12 19.8
003C4329 2019-02-22 14:41:12 21 12 19.9
003C4329 2019-02-22 14:31:09 20.9 12 20.2
003C4329 2019-02-22 14:20:57 20.9 12 19.9
003C4329 2019-02-22 14:10:49 20.9 12 20
003C4329 2019-02-22 14:00:41 20.9 12 19.9
003C4329 2019-02-22 13:50:33 20.9 12 19.8
003C4329 2019-02-22 13:40:28 20.9 12 19.8
003C4329 2019-02-22 13:30:20 20.8 12 20.2
003C4329 2019-02-22 13:20:10 20.9 12 20.3
003C4329 2019-02-22 13:10:01 20.8 12 20.3
003C4329 2019-02-22 12:59:53 20.8 13 20.1
003C4329 2019-02-22 12:49:44 20.8 12 20.1
003C4329 2019-02-22 12:39:38 20.8 13 20.4
003C4329 2019-02-22 12:29:30 20.8 13 20.4
003C4329 2019-02-22 12:19:19 20.7 13 20.4
003C4329 2019-02-22 12:09:11 20.7 13 20.1
003C4329 2019-02-22 11:59:03 20.7 13 20.4
003C4329 2019-02-22 11:48:54 20.7 13 20.6
003C4329 2019-02-22 11:38:46 20.7 13 20.5
003C4329 2019-02-22 11:28:37 20.7 13 20.6
003C4329 2019-02-22 11:18:29 20.7 13 20.5
003C4329 2019-02-22 11:08:20 20.6 13 20.5
003C4329 2019-02-22 10:58:12 20.6 13 20.5
003C4329 2019-02-22 10:48:04 20.6 13 20.5
003C4329 2019-02-22 10:37:56 20.6 13 20.6
003C4329 2019-02-22 10:27:47 20.5 13 20.5
003C4329 2019-02-22 10:17:41 20.6 13 20.7
003C4329 2019-02-22 10:07:31 20.5 13 20.6
003C4329 2019-02-22 09:57:23 20.6 13 20.6
003C4329 2019-02-22 09:47:17 20.5 13 20.5
003C4329 2019-02-22 09:37:07 20.5 13 20.8
003C4329 2019-02-22 09:26:58 20.5 13 20.6
003C4329 2019-02-22 09:16:51 20.5 13 20.4
003C4329 2019-02-22 09:06:42 20.5 13 20
003C4329 2019-02-22 08:56:34 20.6 13 20.4
003C4329 2019-02-22 08:46:26 20.5 13 20.6
003C4329 2019-02-22 08:36:19 20.5 13 21
003C4329 2019-02-22 08:26:11 20.6 13 21.2
003C4329 2019-02-22 08:16:03 20.6 13 21.4
003C4329 2019-02-22 08:05:54 20.6 13 21.4
003C4329 2019-02-22 07:55:46 20.6 13 21.3
003C4329 2019-02-22 07:45:38 20.6 13 21.1
003C4329 2019-02-22 07:35:29 20.6 13 21.2
003C4329 2019-02-22 07:24:48 20.6 13 21
003C4329 2019-02-22 07:14:40 20.6 13 21.1
003C4329 2019-02-22 07:04:31 20.6 13 20.8
003C4329 2019-02-22 06:54:23 20.6 13 20.9
003C4329 2019-02-22 06:44:15 20.6 13 21.2
003C4329 2019-02-22 06:34:07 20.6 13 21.3
003C4329 2019-02-22 06:23:59 20.6 13 21.4
003C4329 2019-02-22 06:13:51 20.6 13 21.6
003C4329 2019-02-22 06:03:42 20.6 13 21.6
003C4329 2019-02-22 05:53:34 20.6 13 21.6
003C4329 2019-02-22 05:43:26 20.6 13 21.9
003C4329 2019-02-22 05:33:18 20.6 13 21.9
003C4329 2019-02-22 05:23:09 20.6 13 22
003C4329 2019-02-22 05:13:01 20.6 13 22.1
003C4329 2019-02-22 05:02:53 20.6 13 22.2
003C4329 2019-02-22 04:52:45 20.6 13 22.4
003C4329 2019-02-22 04:42:37 20.7 13 22.2
003C4329 2019-02-22 04:32:28 20.6 13 22.1
003C4329 2019-02-22 04:22:20 20.7 13 22
003C4329 2019-02-22 04:12:11 20.7 13 21.8
003C4329 2019-02-22 04:02:03 20.7 13 21.6
003C4329 2019-02-22 03:51:59 20.7 13 21.7
003C4329 2019-02-22 03:41:49 20.7 13 21.9
003C4329 2019-02-22 03:31:40 20.7 13 21.9
003C4329 2019-02-22 03:21:30 20.7 13 21.9
003C4329 2019-02-22 03:11:22 20.7 13 21.9
003C4329 2019-02-22 03:01:13 20.7 13 22
003C4329 2019-02-22 02:51:05 20.7 13 22.2
003C4329 2019-02-22 02:40:56 20.7 13 22
003C4329 2019-02-22 02:30:48 20.7 13 22
003C4329 2019-02-22 02:20:40 20.7 13 21.8
003C4329 2019-02-22 02:10:31 20.7 13 21.6
003C4329 2019-02-22 02:00:22 20.7 13 21.3
003C4329 2019-02-22 01:50:14 20.7 13 21.3
003C4329 2019-02-22 01:40:10 20.7 13 21.4
003C4329 2019-02-22 01:29:57 20.7 13 21.1
003C4329 2019-02-22 01:19:49 20.7 13 21.2
003C4329 2019-02-22 01:09:40 20.7 13 21
003C4329 2019-02-22 00:59:32 20.7 13 21
003C4329 2019-02-22 00:49:24 20.7 13 20.8
003C4329 2019-02-22 00:39:16 20.7 13 20.6
003C4329 2019-02-22 00:29:10 20.8 13 21.7
003C4329 2019-02-22 00:19:01 20.8 13 22.6
003C4329 2019-02-22 00:08:51 20.8 13 23.3
003C4329 2019-02-21 23:58:43 20.8 13 24
003C4329 2019-02-21 23:48:35 20.8 13 24.6
003C4329 2019-02-21 23:38:27 20.8 13 25.1
003C4329 2019-02-21 23:28:19 20.8 13 25
003C4329 2019-02-21 23:18:11 20.8 13 25
003C4329 2019-02-21 23:08:06 20.8 13 24.9
003C4329 2019-02-21 22:57:23 20.8 13 24.7
003C4329 2019-02-21 22:27:17 20.9 13 24.6
003C4329 2019-02-21 21:57:12 20.9 13 24.6
003C4329 2019-02-21 21:27:05 20.9 13 24.5
003C4329 2019-02-21 20:56:58 20.9 13 24.5
003C4329 2019-02-21 20:26:52 21 13 24.5
003C4329 2019-02-21 19:56:46 21 14 24.5
003C4329 2019-02-21 19:26:39 21.1 14 24.3
003C4329 2019-02-21 18:56:32 21.1 14 24.3
003C4329 2019-02-21 18:26:25 21.2 14 24.3
003C4329 2019-02-21 17:56:19 21.2 14 24.2
003C4329 2019-02-21 17:26:13 21.2 15 24
003C4329 2019-02-21 16:56:05 21.1 14 23.9
003C4329 2019-02-21 16:25:59 21 14 23.9
003C4329 2019-02-21 15:25:47 20.8 15 23.9
003C4329 2019-02-21 13:55:26 20.7 15 23.2
003C4329 2019-02-21 13:25:22 20.7 15 22.3
003C4329 2019-02-21 12:55:12 20.7 16 21.1
003C4329 2019-02-21 12:25:05 20.7 16 19.6
003C4329 2019-02-21 11:54:59 20.7 16 17
003C4329 2019-02-21 11:24:53 20.7 17 10.3
003C4329 2019-02-21 10:54:47 20.7 17 10.9
003C4329 2019-02-21 10:24:39 20.7 17 11.1
003C4329 2019-02-21 09:54:35 20.7 17 11.1
003C4329 2019-02-21 09:24:25 20.7 18 11.4
003C4329 2019-02-21 06:53:52 20.7 19 11.5
003C4329 2019-02-21 06:23:45 20.7 19 11.5
003C4329 2019-02-21 05:53:38 20.7 19 11.5
003C4329 2019-02-21 04:53:21 20.8 19 11.6
003C4329 2019-02-21 03:53:05 20.8 19 11.6
003C4329 2019-02-21 03:22:55 20.8 20 11.5
003C4329 2019-02-21 02:52:48 20.8 20 17.3
003C4329 2019-02-21 02:22:39 20.8 20 17.4
003C4329 2019-02-21 01:52:31 20.8 20 17.4
003C4329 2019-02-21 01:22:23 20.8 20 19.8
003C4329 2019-02-21 00:52:15 20.8 20 19.7
003C4329 2019-02-21 00:22:07 20.8 20 21.3
003C4329 2019-02-20 23:51:59 20.8 21 21.2
003C4329 2019-02-20 23:21:53 20.8 21 22.4
003C4329 2019-02-20 22:21:37 21.1 21 23.3
003C4329 2019-02-20 22:20:25 20.8 21 23.3
003C4329 2019-02-20 21:50:17 20.8 21 23.3
003C4329 2019-02-20 20:50:02 20.8 21 23.3
003C4329 2019-02-20 20:19:52 20.9 21 24
003C4329 2019-02-20 19:49:45 20.9 21 24
003C4329 2019-02-20 19:19:41 20.9 21 24
003C4329 2019-02-20 18:49:32 20.9 22 24.1
003C4329 2019-02-20 18:19:23 20.9 22 24.1
003C4329 2019-02-20 17:49:19 20.9 22 24.1
003C4329 2019-02-20 17:19:10 20.9 23 24.1
003C4329 2019-02-20 16:49:00 20.9 23 24.1
003C4329 2019-02-20 15:48:44 20.9 23 24.2
003C4329 2019-02-20 15:18:37 20.9 24 24.2
003C4329 2019-02-20 14:18:23 20.9 24 24.2